| time (UTC) | temp F | wind direction | speed knots | gust knots | rain 1hr in | rain 24hr in | rain mn in | humidity % | barometer mb |
| 20260504002604 | 52 | 335 | 2.6 | 6.1 | 0.00 | 0.00 | 0.00 | 90 | 1020.6 |
| 20260504002504 | 52 | 335 | 2.6 | 6.1 | 0.00 | 0.00 | 0.00 | 91 | 1020.6 |
| 20260504002404 | 52 | 335 | 2.6 | 6.1 | 0.00 | 0.00 | 0.00 | 91 | 1020.5 |
| 20260504002304 | 52 | 336 | 2.6 | 5.2 | 0.00 | 0.00 | 0.00 | 91 | 1020.6 |
| 20260504002225 | 52 | 334 | 2.6 | 5.2 | 0.00 | 0.00 | 0.00 | 91 | 1020.6 |
| 20260504002104 | 52 | 335 | 2.6 | 5.2 | 0.00 | 0.00 | 0.00 | 91 | 1020.6 |
| 20260504002004 | 52 | 336 | 2.6 | 4.3 | 0.00 | 0.00 | 0.00 | 91 | 1020.7 |
| 20260504001904 | 52 | 337 | 2.6 | 4.3 | 0.00 | 0.00 | 0.00 | 90 | 1020.7 |
| 20260504001804 | 52 | 335 | 2.6 | 4.3 | 0.00 | 0.00 | 0.00 | 90 | 1020.6 |
| 20260504001725 | 52 | 336 | 2.6 | 4.3 | 0.00 | 0.00 | 0.00 | 90 | 1020.6 |
| 20260504001605 | 52 | 334 | 2.6 | 5.2 | 0.00 | 0.00 | 0.00 | 90 | 1020.7 |
| 20260504001504 | 52 | 333 | 2.6 | 5.2 | 0.00 | 0.00 | 0.00 | 90 | 1020.7 |
| 20260504001405 | 52 | 331 | 2.6 | 5.2 | 0.00 | 0.00 | 0.00 | 90 | 1020.7 |
| 20260504001305 | 52 | 331 | 2.6 | 5.2 | 0.00 | 0.00 | 0.00 | 90 | 1020.6 |
| 20260504001204 | 52 | 332 | 2.6 | 5.2 | 0.00 | 0.00 | 0.00 | 90 | 1020.8 |
| 20260504001104 | 52 | 331 | 2.6 | 5.2 | 0.00 | 0.00 | 0.00 | 91 | 1020.9 |
| 20260504001004 | 52 | 330 | 2.6 | 5.2 | 0.00 | 0.00 | 0.00 | 91 | 1020.8 |
| 20260504000905 | 52 | 332 | 2.6 | 5.2 | 0.00 | 0.00 | 0.00 | 90 | 1020.7 |
| 20260504000804 | 52 | 331 | 2.6 | 5.2 | 0.00 | 0.00 | 0.00 | 90 | 1020.8 |
| 20260504000725 | 52 | 329 | 2.6 | 5.2 | 0.00 | 0.00 | 0.00 | 90 | 1020.8 |
| 20260504000604 | 52 | 329 | 2.6 | 4.3 | 0.00 | 0.00 | 0.00 | 90 | 1020.9 |
| 20260504000504 | 52 | 330 | 2.6 | 4.3 | 0.00 | 0.00 | 0.00 | 90 | 1020.7 |
| 20260504000404 | 52 | 330 | 2.6 | 5.2 | 0.00 | 0.00 | 0.00 | 90 | 1020.8 |
| 20260504000304 | 52 | 331 | 2.6 | 5.2 | 0.00 | 0.00 | 0.00 | 90 | 1020.8 |
| 20260504000204 | 52 | 332 | 2.6 | 5.2 | 0.00 | 0.00 | 0.00 | 90 | 1020.8 |
| 20260504000104 | 52 | 334 | 2.6 | 5.2 | 0.00 | 0.00 | 0.00 | 90 | 1020.8 |
| 20260504000025 | 52 | 333 | 2.6 | 5.2 | 0.00 | 0.00 | 0.00 | 90 | 1020.8 |
| 20260503235905 | 52 | 333 | 2.6 | 5.2 | 0.00 | 0.00 | 0.00 | 90 | 1020.7 |
| 20260503235826 | 52 | 333 | 2.6 | 5.2 | 0.00 | 0.00 | 0.00 | 90 | 1020.7 |
| 20260503235704 | 52 | 337 | 2.6 | 5.2 | 0.00 | 0.00 | 0.00 | 90 | 1020.8 |
| 20260503235604 | 52 | 338 | 2.6 | 5.2 | 0.00 | 0.00 | 0.00 | 90 | 1020.7 |
| 20260503235504 | 52 | 338 | 2.6 | 5.2 | 0.00 | 0.00 | 0.00 | 90 | 1020.9 |
| 20260503235426 | 52 | 338 | 2.6 | 5.2 | 0.00 | 0.00 | 0.00 | 90 | 1020.9 |
| 20260503235325 | 52 | 339 | 2.6 | 5.2 | 0.00 | 0.00 | 0.00 | 89 | 1020.8 |
| 20260503235225 | 52 | 340 | 2.6 | 5.2 | 0.00 | 0.00 | 0.00 | 89 | 1020.8 |
| 20260503235104 | 52 | 338 | 2.6 | 5.2 | 0.00 | 0.00 | 0.00 | 89 | 1020.9 |
| 20260503235004 | 52 | 338 | 2.6 | 5.2 | 0.00 | 0.00 | 0.00 | 89 | 1020.9 |
| 20260503234905 | 53 | 338 | 2.6 | 5.2 | 0.00 | 0.00 | 0.00 | 89 | 1020.9 |
| 20260503234804 | 53 | 337 | 2.6 | 5.2 | 0.00 | 0.00 | 0.00 | 89 | 1020.9 |
| 20260503234725 | 53 | 336 | 2.6 | 5.2 | 0.00 | 0.00 | 0.00 | 89 | 1020.9 |
| 20260503234604 | 53 | 335 | 2.6 | 5.2 | 0.00 | 0.00 | 0.00 | 89 | 1020.8 |
| 20260503234504 | 53 | 334 | 2.6 | 5.2 | 0.00 | 0.00 | 0.00 | 88 | 1020.8 |
| 20260503234425 | 53 | 335 | 2.6 | 5.2 | 0.00 | 0.00 | 0.00 | 89 | 1020.8 |
| 20260503234305 | 53 | 333 | 2.6 | 6.1 | 0.00 | 0.00 | 0.00 | 88 | 1021.0 |
| 20260503234204 | 53 | 331 | 3.5 | 6.1 | 0.00 | 0.00 | 0.00 | 88 | 1020.9 |
| 20260503234104 | 53 | 331 | 3.5 | 6.1 | 0.00 | 0.00 | 0.00 | 88 | 1020.9 |
| 20260503234004 | 53 | 333 | 3.5 | 6.1 | 0.00 | 0.00 | 0.00 | 88 | 1020.8 |
| 20260503233906 | 53 | 331 | 3.5 | 6.1 | 0.00 | 0.00 | 0.00 | 88 | 1020.9 |
| 20260503233825 | 53 | 330 | 3.5 | 6.1 | 0.00 | 0.00 | 0.00 | 88 | 1020.9 |
| 20260503233704 | 53 | 331 | 3.5 | 6.1 | 0.00 | 0.00 | 0.00 | 88 | 1021.0 |
| 20260503233604 | 53 | 332 | 2.6 | 6.1 | 0.00 | 0.00 | 0.00 | 88 | 1020.9 |
| 20260503233504 | 53 | 333 | 3.5 | 6.1 | 0.00 | 0.00 | 0.00 | 88 | 1020.9 |
| 20260503233405 | 53 | 333 | 3.5 | 6.1 | 0.00 | 0.00 | 0.00 | 88 | 1021.0 |
| 20260503233305 | 53 | 333 | 3.5 | 6.1 | 0.00 | 0.00 | 0.00 | 88 | 1020.8 |
| 20260503233204 | 53 | 333 | 2.6 | 6.1 | 0.00 | 0.00 | 0.00 | 88 | 1021.2 |
| 20260503233127 | 53 | 334 | 2.6 | 6.1 | 0.00 | 0.00 | 0.00 | 88 | 1021.2 |
| 20260503233004 | 53 | 332 | 2.6 | 6.1 | 0.00 | 0.00 | 0.00 | 87 | 1021.2 |
| 20260503232904 | 53 | 333 | 2.6 | 5.2 | 0.00 | 0.00 | 0.00 | 87 | 1021.0 |
| 20260503232805 | 53 | 334 | 2.6 | 5.2 | 0.00 | 0.00 | 0.00 | 87 | 1021.2 |
| 20260503232725 | 53 | 334 | 2.6 | 5.2 | 0.00 | 0.00 | 0.00 | 88 | 1021.2 |
| 20260503232604 | 53 | 333 | 2.6 | 5.2 | 0.00 | 0.00 | 0.00 | 87 | 1021.2 |
| 20260503232504 | 53 | 332 | 2.6 | 5.2 | 0.00 | 0.00 | 0.00 | 87 | 1021.2 |
| 20260503232425 | 53 | 332 | 2.6 | 5.2 | 0.00 | 0.00 | 0.00 | 87 | 1021.2 |
| 20260503232305 | 53 | 333 | 2.6 | 5.2 | 0.00 | 0.00 | 0.00 | 87 | 1020.9 |
| 20260503232204 | 53 | 333 | 2.6 | 5.2 | 0.00 | 0.00 | 0.00 | 87 | 1021.0 |
| 20260503232104 | 53 | 333 | 2.6 | 5.2 | 0.00 | 0.00 | 0.00 | 87 | 1021.0 |
| 20260503232004 | 53 | 335 | 2.6 | 5.2 | 0.00 | 0.00 | 0.00 | 87 | 1020.9 |
| 20260503231904 | 53 | 338 | 2.6 | 5.2 | 0.00 | 0.00 | 0.00 | 87 | 1020.9 |
| 20260503231804 | 53 | 338 | 2.6 | 5.2 | 0.00 | 0.00 | 0.00 | 87 | 1021.2 |
| 20260503231704 | 54 | 339 | 2.6 | 5.2 | 0.00 | 0.00 | 0.00 | 87 | 1021.2 |
| 20260503231606 | 54 | 338 | 2.6 | 5.2 | 0.00 | 0.00 | 0.00 | 87 | 1021.2 |
| 20260503231526 | 54 | 338 | 2.6 | 5.2 | 0.00 | 0.00 | 0.00 | 87 | 1021.2 |
| 20260503231404 | 54 | 339 | 2.6 | 5.2 | 0.00 | 0.00 | 0.00 | 87 | 1021.2 |
| 20260503231305 | 54 | 339 | 2.6 | 5.2 | 0.00 | 0.00 | 0.00 | 86 | 1021.3 |
| 20260503231204 | 54 | 339 | 2.6 | 4.3 | 0.00 | 0.00 | 0.00 | 86 | 1021.3 |
| 20260503231104 | 54 | 339 | 2.6 | 5.2 | 0.00 | 0.00 | 0.00 | 86 | 1021.1 |
| 20260503231005 | 54 | 343 | 2.6 | 5.2 | 0.00 | 0.00 | 0.00 | 86 | 1021.2 |
| 20260503230925 | 54 | 344 | 1.7 | 5.2 | 0.00 | 0.00 | 0.00 | 86 | 1021.2 |
| 20260503230804 | 54 | 343 | 1.7 | 5.2 | 0.00 | 0.00 | 0.00 | 86 | 1021.1 |
| 20260503230704 | 54 | 343 | 1.7 | 5.2 | 0.00 | 0.00 | 0.00 | 86 | 1021.1 |
| 20260503230604 | 54 | 342 | 1.7 | 5.2 | 0.00 | 0.00 | 0.00 | 86 | 1021.3 |
| 20260503230504 | 54 | 346 | 1.7 | 5.2 | 0.00 | 0.00 | 0.00 | 86 | 1021.3 |
| 20260503230425 | 54 | 346 | 1.7 | 5.2 | 0.00 | 0.00 | 0.00 | 85 | 1021.3 |
| 20260503230304 | 54 | 345 | 2.6 | 5.2 | 0.00 | 0.00 | 0.00 | 85 | 1021.2 |
| 20260503230204 | 54 | 342 | 2.6 | 5.2 | 0.00 | 0.00 | 0.00 | 85 | 1021.2 |
| 20260503230106 | 54 | 342 | 2.6 | 5.2 | 0.00 | 0.00 | 0.00 | 85 | 1021.3 |
| 20260503230004 | 54 | 340 | 2.6 | 5.2 | 0.00 | 0.00 | 0.00 | 85 | 1021.2 |
| 20260503225904 | 54 | 338 | 2.6 | 5.2 | 0.00 | 0.00 | 0.00 | 86 | 1021.2 |
| 20260503225804 | 54 | 337 | 2.6 | 5.2 | 0.00 | 0.00 | 0.00 | 86 | 1021.3 |
| 20260503225704 | 54 | 335 | 2.6 | 5.2 | 0.00 | 0.00 | 0.00 | 86 | 1021.1 |
| 20260503225604 | 54 | 336 | 2.6 | 4.3 | 0.00 | 0.00 | 0.00 | 86 | 1021.1 |
| 20260503225526 | 54 | 336 | 1.7 | 4.3 | 0.00 | 0.00 | 0.00 | 86 | 1021.1 |
| 20260503225405 | 54 | 336 | 1.7 | 4.3 | 0.00 | 0.00 | 0.00 | 86 | 1021.0 |
| 20260503225305 | 54 | 336 | 1.7 | 4.3 | 0.00 | 0.00 | 0.00 | 86 | 1021.1 |
| 20260503225205 | 54 | 339 | 1.7 | 4.3 | 0.00 | 0.00 | 0.00 | 86 | 1021.4 |
| 20260503225105 | 54 | 339 | 1.7 | 4.3 | 0.00 | 0.00 | 0.00 | 86 | 1021.2 |
| 20260503225004 | 54 | 332 | 1.7 | 4.3 | 0.00 | 0.00 | 0.00 | 85 | 1021.1 |
| 20260503224925 | 54 | 335 | 1.7 | 4.3 | 0.00 | 0.00 | 0.00 | 86 | 1021.1 |
| 20260503224804 | 54 | 331 | 1.7 | 4.3 | 0.00 | 0.00 | 0.00 | 85 | 1021.4 |
| 20260503224704 | 54 | 332 | 1.7 | 4.3 | 0.00 | 0.00 | 0.00 | 85 | 1021.4 |
| 20260503224604 | 54 | 335 | 1.7 | 4.3 | 0.00 | 0.00 | 0.00 | 85 | 1021.4 |
| 20260503224526 | 54 | 333 | 1.7 | 4.3 | 0.00 | 0.00 | 0.00 | 85 | 1021.4 |
| 20260503224404 | 54 | 329 | 1.7 | 4.3 | 0.00 | 0.00 | 0.00 | 85 | 1021.4 |
| 20260503224304 | 54 | 326 | 1.7 | 4.3 | 0.00 | 0.00 | 0.00 | 86 | 1021.3 |
| 20260503224204 | 54 | 324 | 1.7 | 4.3 | 0.00 | 0.00 | 0.00 | 85 | 1021.5 |
| 20260503224105 | 54 | 321 | 1.7 | 4.3 | 0.00 | 0.00 | 0.00 | 85 | 1021.4 |
| 20260503224004 | 54 | 320 | 1.7 | 4.3 | 0.00 | 0.00 | 0.00 | 85 | 1021.3 |
| 20260503223904 | 54 | 321 | 1.7 | 4.3 | 0.00 | 0.00 | 0.00 | 85 | 1021.4 |
| 20260503223804 | 54 | 321 | 1.7 | 4.3 | 0.00 | 0.00 | 0.00 | 84 | 1021.5 |
| 20260503223704 | 54 | 321 | 1.7 | 4.3 | 0.00 | 0.00 | 0.00 | 84 | 1021.5 |
| 20260503223604 | 54 | 320 | 1.7 | 4.3 | 0.00 | 0.00 | 0.00 | 84 | 1021.6 |
| 20260503223505 | 54 | 320 | 1.7 | 3.5 | 0.00 | 0.00 | 0.00 | 84 | 1021.4 |
| 20260503223404 | 54 | 320 | 1.7 | 3.5 | 0.00 | 0.00 | 0.00 | 84 | 1021.5 |
| 20260503223304 | 54 | 323 | 1.7 | 3.5 | 0.00 | 0.00 | 0.00 | 84 | 1021.5 |
| 20260503223204 | 54 | 329 | 0.9 | 3.5 | 0.00 | 0.00 | 0.00 | 84 | 1021.5 |
| 20260503223104 | 54 | 338 | 0.9 | 3.5 | 0.00 | 0.00 | 0.00 | 84 | 1021.2 |
| 20260503223004 | 54 | 343 | 0.9 | 2.6 | 0.00 | 0.00 | 0.00 | 83 | 1021.4 |
| 20260503222925 | 54 | 349 | 0.9 | 2.6 | 0.00 | 0.00 | 0.00 | 83 | 1021.4 |
| 20260503222804 | 54 | 354 | 0.9 | 2.6 | 0.00 | 0.00 | 0.00 | 83 | 1021.3 |
| 20260503222705 | 54 | 360 | 0.9 | 2.6 | 0.00 | 0.00 | 0.00 | 83 | 1021.3 |
| 20260503222625 | 54 | 360 | 0.9 | 2.6 | 0.00 | 0.00 | 0.00 | 83 | 1021.3 |
| 20260503222504 | 55 | 15 | 0.9 | 2.6 | 0.00 | 0.00 | 0.00 | 83 | 1021.3 |
| 20260503222425 | 55 | 22 | 0.9 | 2.6 | 0.00 | 0.00 | 0.00 | 83 | 1021.3 |
| 20260503222304 | 55 | 26 | 0.9 | 2.6 | 0.00 | 0.00 | 0.00 | 83 | 1021.4 |
| 20260503222205 | 55 | 20 | 0.9 | 2.6 | 0.00 | 0.00 | 0.00 | 83 | 1021.4 |
| 20260503222104 | 55 | 13 | 0.9 | 3.5 | 0.00 | 0.00 | 0.00 | 83 | 1021.5 |
| 20260503222004 | 55 | 12 | 1.7 | 3.5 | 0.00 | 0.00 | 0.00 | 82 | 1021.3 |
| 20260503221904 | 55 | 6 | 1.7 | 3.5 | 0.00 | 0.00 | 0.00 | 82 | 1021.3 |
| 20260503221825 | 55 | 2 | 1.7 | 3.5 | 0.00 | 0.00 | 0.00 | 82 | 1021.3 |
| 20260503221705 | 55 | 2 | 1.7 | 3.5 | 0.00 | 0.00 | 0.00 | 83 | 1021.2 |
| 20260503221604 | 55 | 358 | 1.7 | 3.5 | 0.00 | 0.00 | 0.00 | 83 | 1021.1 |
| 20260503221504 | 55 | 356 | 1.7 | 3.5 | 0.00 | 0.00 | 0.00 | 83 | 1021.2 |
| 20260503221425 | 55 | 354 | 1.7 | 3.5 | 0.00 | 0.00 | 0.00 | 83 | 1021.2 |
| 20260503221304 | 55 | 353 | 1.7 | 3.5 | 0.00 | 0.00 | 0.00 | 82 | 1021.1 |
| 20260503221225 | 55 | 353 | 1.7 | 3.5 | 0.00 | 0.00 | 0.00 | 82 | 1021.1 |
| 20260503221104 | 55 | 351 | 1.7 | 3.5 | 0.00 | 0.00 | 0.00 | 83 | 1021.3 |
| 20260503221004 | 55 | 353 | 1.7 | 3.5 | 0.00 | 0.00 | 0.00 | 82 | 1021.1 |
| 20260503220904 | 55 | 359 | 0.9 | 3.5 | 0.00 | 0.00 | 0.00 | 83 | 1021.2 |
| 20260503220804 | 55 | 2 | 0.9 | 3.5 | 0.00 | 0.00 | 0.00 | 82 | 1021.2 |
| 20260503220704 | 55 | 360 | 0.9 | 3.5 | 0.00 | 0.00 | 0.00 | 82 | 1021.3 |
| 20260503220604 | 55 | 351 | 0.9 | 5.2 | 0.00 | 0.00 | 0.00 | 83 | 1021.3 |
| 20260503220504 | 55 | 352 | 0.9 | 5.2 | 0.00 | 0.00 | 0.00 | 82 | 1021.2 |
| 20260503220404 | 56 | 350 | 0.9 | 5.2 | 0.00 | 0.00 | 0.00 | 83 | 1021.0 |
| 20260503220325 | 56 | 352 | 0.9 | 5.2 | 0.00 | 0.00 | 0.00 | 83 | 1021.0 |
| 20260503220225 | 56 | 350 | 0.9 | 5.2 | 0.00 | 0.00 | 0.00 | 82 | 1021.1 |
| 20260503220105 | 56 | 359 | 0.9 | 5.2 | 0.00 | 0.00 | 0.00 | 81 | 1021.1 |
| 20260503220026 | 56 | 360 | 1.7 | 5.2 | 0.00 | 0.00 | 0.00 | 81 | 1021.1 |
| 20260503215904 | 56 | 357 | 1.7 | 5.2 | 0.00 | 0.00 | 0.00 | 81 | 1021.1 |
| 20260503215804 | 56 | 356 | 1.7 | 5.2 | 0.00 | 0.00 | 0.00 | 82 | 1021.1 |
| 20260503215704 | 56 | 355 | 1.7 | 5.2 | 0.00 | 0.00 | 0.00 | 83 | 1021.2 |
| 20260503215604 | 56 | 360 | 1.7 | 3.5 | 0.00 | 0.00 | 0.00 | 81 | 1021.1 |
| 20260503215504 | 56 | 353 | 1.7 | 3.5 | 0.00 | 0.00 | 0.00 | 82 | 1021.1 |
| 20260503215404 | 56 | 356 | 1.7 | 3.5 | 0.00 | 0.00 | 0.00 | 82 | 1021.1 |
| 20260503215304 | 56 | 356 | 1.7 | 3.5 | 0.00 | 0.00 | 0.00 | 82 | 1021.2 |
| 20260503215225 | 56 | 358 | 1.7 | 3.5 | 0.00 | 0.00 | 0.00 | 82 | 1021.2 |
| 20260503215104 | 56 | 349 | 1.7 | 3.5 | 0.00 | 0.00 | 0.00 | 82 | 1021.2 |
| 20260503215004 | 56 | 345 | 1.7 | 3.5 | 0.00 | 0.00 | 0.00 | 82 | 1021.2 |
| 20260503214904 | 56 | 336 | 1.7 | 3.5 | 0.00 | 0.00 | 0.00 | 82 | 1021.1 |
| 20260503214806 | 56 | 336 | 1.7 | 3.5 | 0.00 | 0.00 | 0.00 | 82 | 1021.1 |
| 20260503214706 | 56 | 340 | 1.7 | 3.5 | 0.00 | 0.00 | 0.00 | 82 | 1021.1 |
| 20260503214625 | 56 | 335 | 1.7 | 3.5 | 0.00 | 0.00 | 0.00 | 82 | 1021.1 |
| 20260503214525 | 56 | 334 | 1.7 | 4.3 | 0.00 | 0.00 | 0.00 | 82 | 1020.9 |
| 20260503214404 | 56 | 330 | 1.7 | 5.2 | 0.00 | 0.00 | 0.00 | 82 | 1021.0 |
| 20260503214304 | 56 | 329 | 1.7 | 5.2 | 0.00 | 0.00 | 0.00 | 82 | 1021.2 |
| 20260503214204 | 56 | 324 | 1.7 | 5.2 | 0.00 | 0.00 | 0.00 | 82 | 1021.0 |
| 20260503214104 | 56 | 322 | 1.7 | 5.2 | 0.00 | 0.00 | 0.00 | 82 | 1021.0 |
| 20260503214026 | 56 | 321 | 1.7 | 5.2 | 0.00 | 0.00 | 0.00 | 82 | 1021.0 |
| 20260503213906 | 56 | 325 | 1.7 | 5.2 | 0.00 | 0.00 | 0.00 | 82 | 1020.8 |
| 20260503213825 | 56 | 322 | 1.7 | 5.2 | 0.00 | 0.00 | 0.00 | 82 | 1020.8 |
| 20260503213704 | 56 | 317 | 2.6 | 7.0 | 0.00 | 0.00 | 0.00 | 81 | 1021.1 |
| 20260503213604 | 56 | 317 | 2.6 | 7.0 | 0.00 | 0.00 | 0.00 | 82 | 1021.0 |
| 20260503213504 | 56 | 319 | 2.6 | 7.0 | 0.00 | 0.00 | 0.00 | 81 | 1020.9 |
| 20260503213404 | 56 | 318 | 2.6 | 7.8 | 0.00 | 0.00 | 0.00 | 81 | 1021.1 |
| 20260503213304 | 56 | 314 | 2.6 | 7.8 | 0.00 | 0.00 | 0.00 | 82 | 1021.0 |
| 20260503213205 | 56 | 315 | 2.6 | 7.8 | 0.00 | 0.00 | 0.00 | 82 | 1020.9 |
| 20260503213105 | 56 | 316 | 2.6 | 7.8 | 0.00 | 0.00 | 0.00 | 82 | 1021.1 |
| 20260503213005 | 56 | 312 | 2.6 | 7.8 | 0.00 | 0.00 | 0.00 | 82 | 1020.9 |
| 20260503212904 | 56 | 307 | 2.6 | 7.8 | 0.00 | 0.00 | 0.00 | 82 | 1020.7 |
| 20260503212804 | 56 | 306 | 2.6 | 7.8 | 0.00 | 0.00 | 0.00 | 81 | 1020.8 |
| 20260503212704 | 56 | 307 | 2.6 | 7.8 | 0.00 | 0.00 | 0.00 | 81 | 1020.8 |
| 20260503212604 | 56 | 307 | 2.6 | 7.8 | 0.00 | 0.00 | 0.00 | 81 | 1020.8 |
| 20260503212505 | 56 | 305 | 2.6 | 7.8 | 0.00 | 0.00 | 0.00 | 81 | 1020.9 |
| 20260503212406 | 56 | 301 | 2.6 | 7.8 | 0.00 | 0.00 | 0.00 | 81 | 1020.8 |
| 20260503212305 | 56 | 300 | 2.6 | 6.1 | 0.00 | 0.00 | 0.00 | 80 | 1020.9 |
| 20260503212204 | 57 | 300 | 2.6 | 7.8 | 0.00 | 0.00 | 0.00 | 80 | 1020.8 |
| 20260503212104 | 57 | 300 | 2.6 | 7.8 | 0.00 | 0.00 | 0.00 | 79 | 1020.9 |
| 20260503212025 | 57 | 304 | 2.6 | 7.8 | 0.00 | 0.00 | 0.00 | 78 | 1020.9 |
| 20260503211904 | 57 | 307 | 2.6 | 7.8 | 0.00 | 0.00 | 0.00 | 78 | 1020.8 |
| 20260503211804 | 57 | 305 | 2.6 | 7.8 | 0.00 | 0.00 | 0.00 | 79 | 1020.8 |
| 20260503211704 | 57 | 305 | 2.6 | 7.8 | 0.00 | 0.00 | 0.00 | 78 | 1020.6 |
| 20260503211604 | 57 | 303 | 2.6 | 7.8 | 0.00 | 0.00 | 0.00 | 78 | 1020.7 |
| 20260503211504 | 57 | 303 | 2.6 | 7.8 | 0.00 | 0.00 | 0.00 | 78 | 1020.7 |
| 20260503211404 | 57 | 301 | 2.6 | 7.8 | 0.00 | 0.00 | 0.00 | 77 | 1020.9 |
| 20260503211325 | 57 | 303 | 2.6 | 7.8 | 0.00 | 0.00 | 0.00 | 76 | 1020.9 |
| 20260503211204 | 57 | 299 | 2.6 | 7.0 | 0.00 | 0.00 | 0.00 | 75 | 1020.7 |
| 20260503211125 | 57 | 297 | 2.6 | 7.0 | 0.00 | 0.00 | 0.00 | 75 | 1020.7 |
| 20260503211004 | 57 | 293 | 2.6 | 7.0 | 0.00 | 0.00 | 0.00 | 75 | 1020.8 |
| 20260503210904 | 57 | 291 | 2.6 | 7.0 | 0.00 | 0.00 | 0.00 | 75 | 1020.8 |
| 20260503210804 | 57 | 291 | 2.6 | 7.0 | 0.00 | 0.00 | 0.00 | 75 | 1020.9 |
| 20260503210725 | 57 | 288 | 2.6 | 7.0 | 0.00 | 0.00 | 0.00 | 75 | 1020.9 |
| 20260503210605 | 57 | 290 | 2.6 | 7.0 | 0.00 | 0.00 | 0.00 | 75 | 1020.8 |
| 20260503210525 | 57 | 289 | 2.6 | 7.0 | 0.00 | 0.00 | 0.00 | 75 | 1020.8 |
| 20260503210404 | 57 | 285 | 2.6 | 7.0 | 0.00 | 0.00 | 0.00 | 76 | 1020.7 |
| 20260503210305 | 57 | 282 | 2.6 | 7.0 | 0.00 | 0.00 | 0.00 | 76 | 1020.8 |
| 20260503210204 | 57 | 280 | 2.6 | 7.0 | 0.00 | 0.00 | 0.00 | 75 | 1020.8 |
| 20260503210104 | 57 | 280 | 2.6 | 7.0 | 0.00 | 0.00 | 0.00 | 76 | 1020.8 |
| 20260503210005 | 57 | 278 | 3.5 | 7.8 | 0.00 | 0.00 | 0.00 | 76 | 1020.6 |
| 20260503205904 | 57 | 277 | 3.5 | 7.8 | 0.00 | 0.00 | 0.00 | 76 | 1020.8 |
| 20260503205825 | 57 | 278 | 3.5 | 7.8 | 0.00 | 0.00 | 0.00 | 76 | 1020.8 |
| 20260503205705 | 57 | 276 | 3.5 | 7.8 | 0.00 | 0.00 | 0.00 | 76 | 1020.9 |
| 20260503205604 | 57 | 275 | 3.5 | 8.7 | 0.00 | 0.00 | 0.00 | 76 | 1020.8 |
| 20260503205504 | 57 | 274 | 3.5 | 8.7 | 0.00 | 0.00 | 0.00 | 77 | 1020.8 |
| 20260503205404 | 57 | 276 | 3.5 | 8.7 | 0.00 | 0.00 | 0.00 | 77 | 1020.7 |
| 20260503205326 | 57 | 278 | 3.5 | 8.7 | 0.00 | 0.00 | 0.00 | 77 | 1020.7 |
| 20260503205204 | 57 | 276 | 3.5 | 8.7 | 0.00 | 0.00 | 0.00 | 77 | 1020.8 |
| 20260503205104 | 57 | 275 | 3.5 | 8.7 | 0.00 | 0.00 | 0.00 | 77 | 1020.9 |
| 20260503205004 | 57 | 276 | 3.5 | 8.7 | 0.00 | 0.00 | 0.00 | 77 | 1020.8 |
| 20260503204904 | 57 | 275 | 3.5 | 8.7 | 0.00 | 0.00 | 0.00 | 77 | 1020.5 |
| 20260503204804 | 57 | 274 | 3.5 | 8.7 | 0.00 | 0.00 | 0.00 | 77 | 1020.7 |
| 20260503204705 | 57 | 272 | 3.5 | 8.7 | 0.00 | 0.00 | 0.00 | 77 | 1020.6 |
| 20260503204625 | 57 | 270 | 3.5 | 7.8 | 0.00 | 0.00 | 0.00 | 77 | 1020.6 |
| 20260503204504 | 57 | 269 | 3.5 | 7.8 | 0.00 | 0.00 | 0.00 | 76 | 1020.7 |
| 20260503204404 | 57 | 268 | 2.6 | 7.8 | 0.00 | 0.00 | 0.00 | 76 | 1020.7 |
| 20260503204304 | 57 | 268 | 2.6 | 7.8 | 0.00 | 0.00 | 0.00 | 76 | 1020.5 |
| 20260503204227 | 57 | 266 | 2.6 | 7.8 | 0.00 | 0.00 | 0.00 | 75 | 1020.5 |
| 20260503204104 | 57 | 263 | 2.6 | 7.8 | 0.00 | 0.00 | 0.00 | 75 | 1020.7 |
| 20260503204004 | 57 | 262 | 2.6 | 7.8 | 0.00 | 0.00 | 0.00 | 75 | 1020.6 |
| 20260503203904 | 57 | 260 | 3.5 | 7.8 | 0.00 | 0.00 | 0.00 | 74 | 1020.9 |
| 20260503203805 | 57 | 257 | 3.5 | 7.8 | 0.00 | 0.00 | 0.00 | 74 | 1020.9 |
| 20260503203704 | 57 | 257 | 3.5 | 7.8 | 0.00 | 0.00 | 0.00 | 74 | 1020.6 |
| 20260503203625 | 57 | 256 | 3.5 | 7.8 | 0.00 | 0.00 | 0.00 | 74 | 1020.6 |
| 20260503203504 | 57 | 257 | 2.6 | 7.8 | 0.00 | 0.00 | 0.00 | 73 | 1020.9 |
| 20260503203404 | 57 | 257 | 2.6 | 7.8 | 0.00 | 0.00 | 0.00 | 73 | 1020.8 |
| 20260503203304 | 57 | 249 | 2.6 | 7.8 | 0.00 | 0.00 | 0.00 | 72 | 1020.7 |
| 20260503203204 | 57 | 249 | 2.6 | 7.8 | 0.00 | 0.00 | 0.00 | 72 | 1020.8 |
| 20260503203125 | 57 | 251 | 2.6 | 7.8 | 0.00 | 0.00 | 0.00 | 72 | 1020.8 |
| 20260503203004 | 57 | 249 | 2.6 | 7.0 | 0.00 | 0.00 | 0.00 | 72 | 1020.7 |
| 20260503202904 | 57 | 249 | 2.6 | 6.1 | 0.00 | 0.00 | 0.00 | 72 | 1020.9 |
| 20260503202804 | 58 | 253 | 2.6 | 6.1 | 0.00 | 0.00 | 0.00 | 71 | 1020.8 |
| 20260503202726 | 58 | 250 | 2.6 | 6.1 | 0.00 | 0.00 | 0.00 | 71 | 1020.8 |
| 20260503202604 | 58 | 255 | 2.6 | 5.2 | 0.00 | 0.00 | 0.00 | 70 | 1020.6 |
| 20260503202504 | 58 | 254 | 2.6 | 5.2 | 0.00 | 0.00 | 0.00 | 70 | 1020.9 |
| 20260503202404 | 58 | 258 | 2.6 | 7.0 | 0.00 | 0.00 | 0.00 | 69 | 1020.7 |
| 20260503202304 | 58 | 266 | 2.6 | 7.0 | 0.00 | 0.00 | 0.00 | 68 | 1020.8 |
| 20260503202204 | 58 | 268 | 2.6 | 7.0 | 0.00 | 0.00 | 0.00 | 67 | 1020.8 |
| 20260503202105 | 58 | 269 | 2.6 | 7.0 | 0.00 | 0.00 | 0.00 | 67 | 1020.8 |
| 20260503202004 | 58 | 266 | 2.6 | 7.0 | 0.00 | 0.00 | 0.00 | 67 | 1020.7 |
| 20260503201904 | 58 | 271 | 3.5 | 7.8 | 0.00 | 0.00 | 0.00 | 66 | 1020.8 |
| 20260503201804 | 58 | 273 | 3.5 | 7.8 | 0.00 | 0.00 | 0.00 | 66 | 1020.8 |
| 20260503201704 | 58 | 279 | 3.5 | 7.8 | 0.00 | 0.00 | 0.00 | 65 | 1020.6 |
| 20260503201605 | 58 | 280 | 3.5 | 7.8 | 0.00 | 0.00 | 0.00 | 65 | 1020.7 |
| 20260503201504 | 58 | 281 | 3.5 | 7.8 | 0.00 | 0.00 | 0.00 | 64 | 1020.8 |
| 20260503201425 | 58 | 282 | 3.5 | 7.8 | 0.00 | 0.00 | 0.00 | 64 | 1020.8 |
| 20260503201304 | 58 | 287 | 2.6 | 7.8 | 0.00 | 0.00 | 0.00 | 63 | 1020.8 |
| 20260503201205 | 58 | 294 | 2.6 | 7.8 | 0.00 | 0.00 | 0.00 | 62 | 1020.7 |
| 20260503201104 | 58 | 299 | 2.6 | 7.8 | 0.00 | 0.00 | 0.00 | 62 | 1020.8 |
| 20260503201004 | 58 | 310 | 1.7 | 7.8 | 0.00 | 0.00 | 0.00 | 62 | 1020.7 |
| 20260503200925 | 58 | 313 | 1.7 | 6.1 | 0.00 | 0.00 | 0.00 | 63 | 1020.7 |
| 20260503200804 | 58 | 319 | 1.7 | 6.1 | 0.00 | 0.00 | 0.00 | 63 | 1020.6 |
| 20260503200706 | 58 | 320 | 0.9 | 4.3 | 0.00 | 0.00 | 0.00 | 66 | 1020.5 |
| 20260503200605 | 58 | 322 | 0.9 | 2.6 | 0.00 | 0.00 | 0.00 | 67 | 1020.5 |
| 20260503200504 | 58 | 316 | 0.9 | 2.6 | 0.00 | 0.00 | 0.00 | 67 | 1020.8 |
| 20260503200427 | 58 | 313 | 0.9 | 2.6 | 0.00 | 0.00 | 0.00 | 67 | 1020.8 |
| 20260503200304 | 58 | 305 | 0.9 | 2.6 | 0.00 | 0.00 | 0.00 | 66 | 1020.6 |
| 20260503200204 | 58 | 301 | 0.9 | 3.5 | 0.00 | 0.00 | 0.00 | 67 | 1020.5 |
| 20260503200104 | 58 | 294 | 0.9 | 3.5 | 0.00 | 0.00 | 0.00 | 68 | 1020.6 |
| 20260503200025 | 58 | 291 | 0.9 | 3.5 | 0.00 | 0.00 | 0.00 | 68 | 1020.6 |
| 20260503195904 | 58 | 283 | 1.7 | 4.3 | 0.00 | 0.00 | 0.00 | 67 | 1020.6 |
| 20260503195806 | 58 | 283 | 1.7 | 4.3 | 0.00 | 0.00 | 0.00 | 67 | 1020.5 |
| 20260503195725 | 58 | 284 | 1.7 | 4.3 | 0.00 | 0.00 | 0.00 | 67 | 1020.5 |
| 20260503195604 | 58 | 285 | 1.7 | 4.3 | 0.00 | 0.00 | 0.00 | 66 | 1020.5 |
| 20260503195505 | 58 | 287 | 1.7 | 4.3 | 0.00 | 0.00 | 0.00 | 66 | 1020.5 |
| 20260503195405 | 58 | 289 | 1.7 | 4.3 | 0.00 | 0.00 | 0.00 | 66 | 1020.4 |
| 20260503195305 | 58 | 289 | 1.7 | 4.3 | 0.00 | 0.00 | 0.00 | 66 | 1020.6 |
| 20260503195204 | 58 | 291 | 1.7 | 4.3 | 0.00 | 0.00 | 0.00 | 66 | 1020.4 |
| 20260503195104 | 58 | 293 | 1.7 | 4.3 | 0.00 | 0.00 | 0.00 | 66 | 1020.5 |
| 20260503195004 | 58 | 298 | 1.7 | 4.3 | 0.00 | 0.00 | 0.00 | 67 | 1020.5 |
| 20260503194925 | 58 | 301 | 1.7 | 4.3 | 0.00 | 0.00 | 0.00 | 67 | 1020.5 |
| 20260503194805 | 58 | 304 | 1.7 | 3.5 | 0.00 | 0.00 | 0.00 | 67 | 1020.3 |
| 20260503194704 | 58 | 303 | 1.7 | 3.5 | 0.00 | 0.00 | 0.00 | 67 | 1020.4 |
| 20260503194625 | 58 | 304 | 1.7 | 3.5 | 0.00 | 0.00 | 0.00 | 68 | 1020.4 |
| 20260503194504 | 58 | 310 | 0.9 | 3.5 | 0.00 | 0.00 | 0.00 | 68 | 1020.1 |
| 20260503194404 | 58 | 315 | 0.9 | 3.5 | 0.00 | 0.00 | 0.00 | 68 | 1020.3 |
| 20260503194304 | 58 | 319 | 0.9 | 3.5 | 0.00 | 0.00 | 0.00 | 69 | 1020.5 |
| 20260503194227 | 58 | 321 | 0.9 | 3.5 | 0.00 | 0.00 | 0.00 | 69 | 1020.5 |
| 20260503194104 | 58 | 324 | 0.9 | 2.6 | 0.00 | 0.00 | 0.00 | 69 | 1020.3 |
| 20260503194005 | 58 | 329 | 0.9 | 2.6 | 0.00 | 0.00 | 0.00 | 69 | 1020.1 |
| 20260503193905 | 58 | 336 | 0.9 | 2.6 | 0.00 | 0.00 | 0.00 | 69 | 1020.3 |
| 20260503193825 | 58 | 338 | 0.9 | 2.6 | 0.00 | 0.00 | 0.00 | 69 | 1020.3 |
| 20260503193725 | 58 | 350 | 0.9 | 2.6 | 0.00 | 0.00 | 0.00 | 68 | 1020.2 |
| 20260503193604 | 58 | 13 | 0.9 | 2.6 | 0.00 | 0.00 | 0.00 | 68 | 1020.2 |
| 20260503193505 | 58 | 19 | 0.9 | 2.6 | 0.00 | 0.00 | 0.00 | 68 | 1020.2 |
| 20260503193404 | 58 | 25 | 0.9 | 2.6 | 0.00 | 0.00 | 0.00 | 67 | 1020.0 |
| 20260503193304 | 58 | 24 | 0.9 | 2.6 | 0.00 | 0.00 | 0.00 | 67 | 1020.1 |
| 20260503193204 | 58 | 26 | 0.9 | 2.6 | 0.00 | 0.00 | 0.00 | 68 | 1020.2 |
| 20260503193104 | 59 | 34 | 0.9 | 2.6 | 0.00 | 0.00 | 0.00 | 66 | 1020.1 |
| 20260503193004 | 59 | 53 | 0.9 | 2.6 | 0.00 | 0.00 | 0.00 | 67 | 1020.2 |
| 20260503192904 | 59 | 347 | 0.9 | 2.6 | 0.00 | 0.00 | 0.00 | 67 | 1020.2 |
| 20260503192804 | 59 | 339 | 0.9 | 2.6 | 0.00 | 0.00 | 0.00 | 66 | 1020.1 |
| 20260503192725 | 59 | 330 | 0.9 | 2.6 | 0.00 | 0.00 | 0.00 | 66 | 1020.1 |
| 20260503192604 | 59 | 321 | 0.9 | 2.6 | 0.00 | 0.00 | 0.00 | 66 | 1020.1 |
| 20260503192504 | 59 | 313 | 0.9 | 2.6 | 0.00 | 0.00 | 0.00 | 66 | 1020.1 |
| 20260503192404 | 59 | 300 | 0.9 | 2.6 | 0.00 | 0.00 | 0.00 | 66 | 1020.2 |
| 20260503192305 | 59 | 296 | 0.9 | 4.3 | 0.00 | 0.00 | 0.00 | 66 | 1020.0 |
| 20260503192204 | 59 | 292 | 0.9 | 4.3 | 0.00 | 0.00 | 0.00 | 65 | 1020.2 |
| 20260503192104 | 59 | 292 | 1.7 | 4.3 | 0.00 | 0.00 | 0.00 | 66 | 1020.0 |
| 20260503192027 | 59 | 290 | 1.7 | 5.2 | 0.00 | 0.00 | 0.00 | 66 | 1020.0 |
| 20260503191905 | 59 | 291 | 1.7 | 5.2 | 0.00 | 0.00 | 0.00 | 65 | 1020.0 |
| 20260503191804 | 59 | 293 | 1.7 | 5.2 | 0.00 | 0.00 | 0.00 | 65 | 1020.0 |
| 20260503191705 | 59 | 298 | 1.7 | 5.2 | 0.00 | 0.00 | 0.00 | 65 | 1020.1 |
| 20260503191604 | 59 | 296 | 1.7 | 5.2 | 0.00 | 0.00 | 0.00 | 66 | 1020.1 |
| 20260503191505 | 59 | 297 | 1.7 | 5.2 | 0.00 | 0.00 | 0.00 | 66 | 1020.2 |
| 20260503191404 | 59 | 301 | 1.7 | 5.2 | 0.00 | 0.00 | 0.00 | 66 | 1020.1 |
| 20260503191304 | 59 | 303 | 1.7 | 5.2 | 0.00 | 0.00 | 0.00 | 66 | 1020.1 |
| 20260503191204 | 59 | 307 | 1.7 | 5.2 | 0.00 | 0.00 | 0.00 | 66 | 1019.9 |
| 20260503191105 | 59 | 309 | 1.7 | 5.2 | 0.00 | 0.00 | 0.00 | 66 | 1020.2 |
| 20260503191004 | 59 | 317 | 1.7 | 4.3 | 0.00 | 0.00 | 0.00 | 66 | 1020.0 |
| 20260503190904 | 59 | 319 | 0.9 | 4.3 | 0.00 | 0.00 | 0.00 | 66 | 1020.0 |
| 20260503190804 | 59 | 320 | 0.9 | 4.3 | 0.00 | 0.00 | 0.00 | 66 | 1020.0 |
| 20260503190704 | 59 | 315 | 0.9 | 3.5 | 0.00 | 0.00 | 0.00 | 66 | 1020.0 |
| 20260503190604 | 59 | 318 | 0.9 | 3.5 | 0.00 | 0.00 | 0.00 | 66 | 1020.0 |
| 20260503190504 | 60 | 313 | 0.9 | 3.5 | 0.00 | 0.00 | 0.00 | 67 | 1020.0 |
| 20260503190404 | 60 | 319 | 0.9 | 3.5 | 0.00 | 0.00 | 0.00 | 67 | 1020.1 |
| 20260503190325 | 60 | 332 | 0.9 | 3.5 | 0.00 | 0.00 | 0.00 | 66 | 1020.1 |
| 20260503190206 | 60 | 331 | 0.9 | 3.5 | 0.00 | 0.00 | 0.00 | 67 | 1019.9 |
| 20260503190104 | 60 | 333 | 0.9 | 2.6 | 0.00 | 0.00 | 0.00 | 66 | 1020.3 |
| 20260503190004 | 60 | 319 | 0.9 | 2.6 | 0.00 | 0.00 | 0.00 | 67 | 1020.1 |
| 20260503185926 | 60 | 300 | 0.9 | 3.5 | 0.00 | 0.00 | 0.00 | 66 | 1020.1 |
| 20260503185804 | 60 | 288 | 0.9 | 3.5 | 0.00 | 0.00 | 0.00 | 67 | 1020.1 |
| 20260503185704 | 60 | 280 | 0.9 | 3.5 | 0.00 | 0.00 | 0.00 | 66 | 1020.0 |
| 20260503185604 | 60 | 284 | 0.9 | 5.2 | 0.00 | 0.00 | 0.00 | 66 | 1020.1 |
| 20260503185505 | 60 | 284 | 1.7 | 5.2 | 0.00 | 0.00 | 0.00 | 66 | 1020.1 |
| 20260503185404 | 60 | 281 | 1.7 | 5.2 | 0.00 | 0.00 | 0.00 | 67 | 1020.1 |
| 20260503185305 | 60 | 284 | 1.7 | 5.2 | 0.00 | 0.00 | 0.00 | 67 | 1020.0 |
| 20260503185205 | 60 | 287 | 1.7 | 5.2 | 0.00 | 0.00 | 0.00 | 66 | 1020.1 |
| 20260503185104 | 60 | 291 | 1.7 | 6.1 | 0.00 | 0.00 | 0.00 | 66 | 1020.2 |
| 20260503185004 | 60 | 293 | 2.6 | 6.1 | 0.00 | 0.00 | 0.00 | 66 | 1020.1 |
| 20260503184904 | 60 | 297 | 2.6 | 6.1 | 0.00 | 0.00 | 0.00 | 66 | 1020.1 |
| 20260503184804 | 60 | 297 | 2.6 | 6.1 | 0.00 | 0.00 | 0.00 | 66 | 1020.0 |
| 20260503184704 | 60 | 300 | 2.6 | 6.1 | 0.00 | 0.00 | 0.00 | 66 | 1020.1 |
| 20260503184625 | 61 | 301 | 2.6 | 6.1 | 0.00 | 0.00 | 0.00 | 66 | 1020.1 |
| 20260503184525 | 61 | 303 | 2.6 | 6.1 | 0.00 | 0.00 | 0.00 | 66 | 1020.1 |
| 20260503184404 | 61 | 308 | 2.6 | 6.1 | 0.00 | 0.00 | 0.00 | 66 | 1019.9 |
| 20260503184325 | 61 | 310 | 2.6 | 6.1 | 0.00 | 0.00 | 0.00 | 66 | 1019.9 |
| 20260503184204 | 61 | 309 | 1.7 | 6.1 | 0.00 | 0.00 | 0.00 | 66 | 1019.8 |
| 20260503184105 | 61 | 309 | 1.7 | 5.2 | 0.00 | 0.00 | 0.00 | 66 | 1019.7 |
| 20260503184004 | 61 | 309 | 1.7 | 5.2 | 0.00 | 0.00 | 0.00 | 67 | 1020.0 |
| 20260503183904 | 61 | 309 | 1.7 | 4.3 | 0.00 | 0.00 | 0.00 | 67 | 1019.8 |
| 20260503183804 | 61 | 314 | 0.9 | 4.3 | 0.00 | 0.00 | 0.00 | 66 | 1019.9 |
| 20260503183726 | 61 | 315 | 0.9 | 4.3 | 0.00 | 0.00 | 0.00 | 68 | 1019.9 |
| 20260503183604 | 61 | 312 | 0.9 | 4.3 | 0.00 | 0.00 | 0.00 | 66 | 1019.8 |
| 20260503183504 | 61 | 311 | 0.9 | 2.6 | 0.00 | 0.00 | 0.00 | 65 | 1019.8 |
| 20260503183425 | 61 | 308 | 0.9 | 2.6 | 0.00 | 0.00 | 0.00 | 65 | 1019.8 |
| 20260503183304 | 61 | 304 | 0.9 | 3.5 | 0.00 | 0.00 | 0.00 | 65 | 1019.8 |
| 20260503183204 | 61 | 306 | 0.9 | 3.5 | 0.00 | 0.00 | 0.00 | 66 | 1019.9 |
| 20260503183106 | 61 | 292 | 0.9 | 3.5 | 0.00 | 0.00 | 0.00 | 66 | 1019.8 |
| 20260503183006 | 61 | 286 | 0.9 | 3.5 | 0.00 | 0.00 | 0.00 | 65 | 1019.8 |
| 20260503182904 | 61 | 282 | 1.7 | 3.5 | 0.00 | 0.00 | 0.00 | 65 | 1019.9 |
| 20260503182804 | 61 | 274 | 1.7 | 3.5 | 0.00 | 0.00 | 0.00 | 66 | 1019.7 |
| 20260503182704 | 61 | 268 | 1.7 | 3.5 | 0.00 | 0.00 | 0.00 | 65 | 1019.8 |
| 20260503182604 | 61 | 262 | 1.7 | 3.5 | 0.00 | 0.00 | 0.00 | 64 | 1019.8 |
| 20260503182505 | 62 | 262 | 1.7 | 3.5 | 0.00 | 0.00 | 0.00 | 64 | 1019.8 |
| 20260503182404 | 62 | 262 | 1.7 | 3.5 | 0.00 | 0.00 | 0.00 | 65 | 1019.8 |
| 20260503182305 | 62 | 256 | 1.7 | 3.5 | 0.00 | 0.00 | 0.00 | 65 | 1019.8 |
| 20260503182204 | 62 | 256 | 1.7 | 3.5 | 0.00 | 0.00 | 0.00 | 65 | 1019.6 |
| 20260503182125 | 62 | 260 | 1.7 | 3.5 | 0.00 | 0.00 | 0.00 | 65 | 1019.6 |
| 20260503182006 | 62 | 263 | 0.9 | 3.5 | 0.00 | 0.00 | 0.00 | 65 | 1019.8 |
| 20260503181904 | 62 | 265 | 0.9 | 3.5 | 0.00 | 0.00 | 0.00 | 64 | 1019.7 |
| 20260503181804 | 62 | 264 | 1.7 | 3.5 | 0.00 | 0.00 | 0.00 | 64 | 1019.5 |
| 20260503181704 | 62 | 266 | 1.7 | 3.5 | 0.00 | 0.00 | 0.00 | 64 | 1019.8 |
| 20260503181604 | 62 | 274 | 1.7 | 3.5 | 0.00 | 0.00 | 0.00 | 64 | 1019.5 |
| 20260503181505 | 62 | 271 | 1.7 | 3.5 | 0.00 | 0.00 | 0.00 | 64 | 1019.8 |
| 20260503181404 | 62 | 274 | 1.7 | 3.5 | 0.00 | 0.00 | 0.00 | 63 | 1019.9 |
| 20260503181305 | 62 | 274 | 1.7 | 3.5 | 0.00 | 0.00 | 0.00 | 63 | 1019.7 |
| 20260503181205 | 62 | 274 | 1.7 | 3.5 | 0.00 | 0.00 | 0.00 | 62 | 1019.8 |
| 20260503181104 | 62 | 275 | 1.7 | 3.5 | 0.00 | 0.00 | 0.00 | 63 | 1019.6 |
| 20260503181005 | 63 | 277 | 1.7 | 5.2 | 0.00 | 0.00 | 0.00 | 63 | 1019.8 |
| 20260503180904 | 63 | 274 | 1.7 | 5.2 | 0.00 | 0.00 | 0.00 | 63 | 1019.9 |
| 20260503180804 | 63 | 279 | 1.7 | 5.2 | 0.00 | 0.00 | 0.00 | 63 | 1019.7 |
| 20260503180705 | 63 | 280 | 1.7 | 5.2 | 0.00 | 0.00 | 0.00 | 63 | 1020.0 |
| 20260503180604 | 63 | 277 | 1.7 | 5.2 | 0.00 | 0.00 | 0.00 | 63 | 1019.7 |
| 20260503180504 | 63 | 279 | 1.7 | 5.2 | 0.00 | 0.00 | 0.00 | 62 | 1019.8 |
| 20260503180425 | 63 | 279 | 1.7 | 5.2 | 0.00 | 0.00 | 0.00 | 62 | 1019.8 |
| 20260503180326 | 63 | 279 | 1.7 | 5.2 | 0.00 | 0.00 | 0.00 | 61 | 1019.7 |
| 20260503180226 | 63 | 273 | 1.7 | 5.2 | 0.00 | 0.00 | 0.00 | 62 | 1019.6 |
| 20260503180104 | 63 | 271 | 1.7 | 5.2 | 0.00 | 0.00 | 0.00 | 62 | 1019.7 |
| 20260503180005 | 63 | 265 | 1.7 | 5.2 | 0.00 | 0.00 | 0.00 | 61 | 1019.6 |
| 20260503175904 | 63 | 271 | 1.7 | 5.2 | 0.00 | 0.00 | 0.00 | 61 | 1019.6 |
| 20260503175825 | 63 | 271 | 1.7 | 5.2 | 0.00 | 0.00 | 0.00 | 61 | 1019.6 |
| 20260503175704 | 64 | 277 | 1.7 | 5.2 | 0.00 | 0.00 | 0.00 | 61 | 1019.7 |
| 20260503175604 | 64 | 284 | 1.7 | 5.2 | 0.00 | 0.00 | 0.00 | 61 | 1019.6 |
| 20260503175504 | 64 | 287 | 1.7 | 5.2 | 0.00 | 0.00 | 0.00 | 60 | 1019.8 |
| 20260503175425 | 64 | 282 | 1.7 | 5.2 | 0.00 | 0.00 | 0.00 | 60 | 1019.8 |
| 20260503175305 | 64 | 283 | 1.7 | 5.2 | 0.00 | 0.00 | 0.00 | 60 | 1019.7 |
| 20260503175205 | 64 | 287 | 1.7 | 5.2 | 0.00 | 0.00 | 0.00 | 60 | 1019.6 |
| 20260503175105 | 64 | 287 | 1.7 | 5.2 | 0.00 | 0.00 | 0.00 | 60 | 1019.6 |
| 20260503175004 | 64 | 288 | 1.7 | 5.2 | 0.00 | 0.00 | 0.00 | 59 | 1019.6 |
| 20260503174904 | 64 | 286 | 1.7 | 4.3 | 0.00 | 0.00 | 0.00 | 59 | 1019.5 |
| 20260503174804 | 64 | 284 | 1.7 | 4.3 | 0.00 | 0.00 | 0.00 | 58 | 1019.6 |
| 20260503174704 | 64 | 282 | 2.6 | 6.1 | 0.00 | 0.00 | 0.00 | 58 | 1019.6 |
| 20260503174604 | 64 | 278 | 2.6 | 6.1 | 0.00 | 0.00 | 0.00 | 58 | 1019.6 |
| 20260503174525 | 65 | 277 | 2.6 | 6.1 | 0.00 | 0.00 | 0.00 | 58 | 1019.6 |
| 20260503174426 | 65 | 279 | 2.6 | 6.1 | 0.00 | 0.00 | 0.00 | 58 | 1019.6 |
| 20260503174304 | 65 | 279 | 2.6 | 6.1 | 0.00 | 0.00 | 0.00 | 58 | 1019.7 |
| 20260503174204 | 65 | 281 | 2.6 | 6.1 | 0.00 | 0.00 | 0.00 | 57 | 1019.6 |
| 20260503174104 | 65 | 283 | 2.6 | 6.1 | 0.00 | 0.00 | 0.00 | 57 | 1019.6 |
| 20260503174004 | 65 | 286 | 2.6 | 6.1 | 0.00 | 0.00 | 0.00 | 57 | 1019.6 |
| 20260503173904 | 65 | 286 | 2.6 | 6.1 | 0.00 | 0.00 | 0.00 | 57 | 1019.7 |
| 20260503173804 | 65 | 290 | 2.6 | 6.1 | 0.00 | 0.00 | 0.00 | 57 | 1019.6 |
| 20260503173705 | 65 | 289 | 2.6 | 4.3 | 0.00 | 0.00 | 0.00 | 57 | 1019.6 |
| 20260503173604 | 65 | 291 | 2.6 | 5.2 | 0.00 | 0.00 | 0.00 | 57 | 1019.6 |
| 20260503173525 | 65 | 291 | 2.6 | 5.2 | 0.00 | 0.00 | 0.00 | 56 | 1019.6 |
| 20260503173405 | 65 | 290 | 2.6 | 5.2 | 0.00 | 0.00 | 0.00 | 56 | 1019.6 |
| 20260503173304 | 65 | 292 | 2.6 | 5.2 | 0.00 | 0.00 | 0.00 | 56 | 1019.5 |
| 20260503173204 | 65 | 293 | 2.6 | 7.0 | 0.00 | 0.00 | 0.00 | 56 | 1019.3 |
| 20260503173104 | 65 | 292 | 2.6 | 7.0 | 0.00 | 0.00 | 0.00 | 55 | 1019.5 |
| 20260503173004 | 65 | 292 | 2.6 | 7.0 | 0.00 | 0.00 | 0.00 | 56 | 1019.5 |
| 20260503172904 | 66 | 294 | 2.6 | 7.0 | 0.00 | 0.00 | 0.00 | 55 | 1019.6 |
| 20260503172804 | 66 | 292 | 2.6 | 7.0 | 0.00 | 0.00 | 0.00 | 55 | 1019.4 |
| 20260503172704 | 66 | 296 | 2.6 | 7.0 | 0.00 | 0.00 | 0.00 | 55 | 1019.5 |
| 20260503172604 | 66 | 299 | 2.6 | 7.0 | 0.00 | 0.00 | 0.00 | 55 | 1019.6 |
| 20260503172504 | 66 | 299 | 2.6 | 7.0 | 0.00 | 0.00 | 0.00 | 55 | 1019.5 |
| 20260503172425 | 66 | 299 | 2.6 | 7.0 | 0.00 | 0.00 | 0.00 | 55 | 1019.5 |
| 20260503172305 | 66 | 295 | 2.6 | 7.0 | 0.00 | 0.00 | 0.00 | 55 | 1019.2 |
| 20260503172204 | 66 | 291 | 2.6 | 5.2 | 0.00 | 0.00 | 0.00 | 55 | 1019.1 |
| 20260503172104 | 66 | 290 | 2.6 | 4.3 | 0.00 | 0.00 | 0.00 | 55 | 1019.2 |
| 20260503172004 | 66 | 291 | 1.7 | 4.3 | 0.00 | 0.00 | 0.00 | 55 | 1019.4 |
| 20260503171926 | 66 | 290 | 1.7 | 4.3 | 0.00 | 0.00 | 0.00 | 55 | 1019.4 |
| 20260503171804 | 67 | 289 | 2.6 | 4.3 | 0.00 | 0.00 | 0.00 | 55 | 1019.3 |
| 20260503171704 | 67 | 285 | 1.7 | 4.3 | 0.00 | 0.00 | 0.00 | 55 | 1019.3 |
| 20260503171625 | 67 | 283 | 1.7 | 4.3 | 0.00 | 0.00 | 0.00 | 55 | 1019.3 |
| 20260503171504 | 67 | 283 | 1.7 | 4.3 | 0.00 | 0.00 | 0.00 | 54 | 1019.3 |
| 20260503171425 | 67 | 283 | 1.7 | 4.3 | 0.00 | 0.00 | 0.00 | 54 | 1019.3 |
| 20260503171304 | 67 | 288 | 1.7 | 4.3 | 0.00 | 0.00 | 0.00 | 54 | 1019.3 |
| 20260503171204 | 67 | 291 | 1.7 | 4.3 | 0.00 | 0.00 | 0.00 | 54 | 1019.4 |
| 20260503171125 | 67 | 292 | 1.7 | 4.3 | 0.00 | 0.00 | 0.00 | 54 | 1019.4 |
| 20260503171004 | 67 | 288 | 2.6 | 4.3 | 0.00 | 0.00 | 0.00 | 54 | 1019.3 |
| 20260503170925 | 67 | 287 | 2.6 | 4.3 | 0.00 | 0.00 | 0.00 | 54 | 1019.3 |
| 20260503170804 | 67 | 285 | 2.6 | 4.3 | 0.00 | 0.00 | 0.00 | 54 | 1019.3 |
| 20260503170704 | 67 | 286 | 2.6 | 4.3 | 0.00 | 0.00 | 0.00 | 54 | 1019.4 |
| 20260503170604 | 67 | 284 | 2.6 | 4.3 | 0.00 | 0.00 | 0.00 | 53 | 1019.1 |
| 20260503170504 | 67 | 282 | 2.6 | 4.3 | 0.00 | 0.00 | 0.00 | 54 | 1019.3 |
| 20260503170404 | 67 | 280 | 1.7 | 4.3 | 0.00 | 0.00 | 0.00 | 53 | 1019.2 |
| 20260503170325 | 67 | 277 | 1.7 | 4.3 | 0.00 | 0.00 | 0.00 | 53 | 1019.2 |
| 20260503170204 | 67 | 276 | 1.7 | 4.3 | 0.00 | 0.00 | 0.00 | 54 | 1019.2 |
| 20260503170125 | 67 | 276 | 1.7 | 4.3 | 0.00 | 0.00 | 0.00 | 53 | 1019.2 |
| 20260503160104 | 70 | 278 | 3.5 | 7.0 | 0.00 | 0.00 | 0.00 | 49 | 1019.3 |
| 20260503151004 | 71 | 286 | 2.6 | 6.1 | 0.00 | 0.00 | 0.00 | 49 | 1019.8 |
| 20260503150904 | 71 | 293 | 2.6 | 6.1 | 0.00 | 0.00 | 0.00 | 50 | 1019.8 |
| 20260503150804 | 71 | 305 | 1.7 | 6.1 | 0.00 | 0.00 | 0.00 | 50 | 1019.9 |
| 20260503150704 | 71 | 303 | 2.6 | 6.1 | 0.00 | 0.00 | 0.00 | 50 | 1019.9 |
| 20260503150604 | 71 | 302 | 2.6 | 6.1 | 0.00 | 0.00 | 0.00 | 50 | 1019.8 |
| 20260503150505 | 71 | 301 | 1.7 | 6.1 | 0.00 | 0.00 | 0.00 | 50 | 1019.9 |
| 20260503150404 | 71 | 308 | 1.7 | 6.1 | 0.00 | 0.00 | 0.00 | 50 | 1019.9 |
| 20260503150304 | 71 | 316 | 1.7 | 5.2 | 0.00 | 0.00 | 0.00 | 50 | 1020.0 |
| 20260503150226 | 71 | 307 | 2.6 | 7.8 | 0.00 | 0.00 | 0.00 | 50 | 1020.0 |
| 20260503150104 | 71 | 295 | 2.6 | 7.8 | 0.00 | 0.00 | 0.00 | 51 | 1020.1 |
| 20260503140204 | 71 | 269 | 4.3 | 11.3 | 0.00 | 0.00 | 0.00 | 45 | 1020.6 |
| 20260503140104 | 71 | 271 | 4.3 | 11.3 | 0.00 | 0.00 | 0.00 | 44 | 1020.7 |
| 20260503131404 | 71 | 268 | 5.2 | 10.4 | 0.00 | 0.00 | 0.00 | 46 | 1021.0 |
| 20260503131305 | 71 | 271 | 5.2 | 10.4 | 0.00 | 0.00 | 0.00 | 45 | 1021.2 |
| 20260503131204 | 71 | 272 | 5.2 | 10.4 | 0.00 | 0.00 | 0.00 | 45 | 1020.9 |
| 20260503131105 | 71 | 273 | 5.2 | 11.3 | 0.00 | 0.00 | 0.00 | 45 | 1021.1 |
| 20260503131005 | 71 | 272 | 5.2 | 11.3 | 0.00 | 0.00 | 0.00 | 45 | 1021.0 |
| 20260503130904 | 71 | 276 | 5.2 | 11.3 | 0.00 | 0.00 | 0.00 | 45 | 1021.0 |
| 20260503130804 | 71 | 277 | 5.2 | 11.3 | 0.00 | 0.00 | 0.00 | 45 | 1021.1 |
| 20260503130724 | 71 | 278 | 4.3 | 11.3 | 0.00 | 0.00 | 0.00 | 45 | 1021.1 |
| 20260503130604 | 71 | 279 | 5.2 | 11.3 | 0.00 | 0.00 | 0.00 | 44 | 1020.8 |
| 20260503130504 | 71 | 278 | 4.3 | 11.3 | 0.00 | 0.00 | 0.00 | 44 | 1020.9 |
| 20260503130405 | 72 | 278 | 4.3 | 11.3 | 0.00 | 0.00 | 0.00 | 44 | 1020.9 |
| 20260503130304 | 72 | 279 | 4.3 | 11.3 | 0.00 | 0.00 | 0.00 | 44 | 1021.0 |
| 20260503130204 | 72 | 280 | 4.3 | 11.3 | 0.00 | 0.00 | 0.00 | 44 | 1021.1 |
| 20260503130105 | 72 | 278 | 3.5 | 9.6 | 0.00 | 0.00 | 0.00 | 44 | 1021.2 |
| 20260503120204 | 70 | 206 | 3.5 | 7.0 | 0.00 | 0.00 | 0.00 | 52 | 1021.3 |
| 20260503120125 | 70 | 203 | 3.5 | 7.0 | 0.00 | 0.00 | 0.00 | 53 | 1021.3 |
| 20260503110804 | 72 | 128 | 2.6 | 6.1 | 0.00 | 0.00 | 0.00 | 48 | 1021.3 |
| 20260503110703 | 72 | 140 | 2.6 | 6.1 | 0.00 | 0.00 | 0.00 | 47 | 1021.3 |
| 20260503110625 | 72 | 144 | 2.6 | 5.2 | 0.00 | 0.00 | 0.00 | 48 | 1021.3 |
| 20260503110504 | 72 | 165 | 2.6 | 5.2 | 0.00 | 0.00 | 0.00 | 48 | 1021.3 |
| 20260503110404 | 71 | 159 | 1.7 | 5.2 | 0.00 | 0.00 | 0.00 | 49 | 1021.3 |
| 20260503110304 | 71 | 177 | 2.6 | 5.2 | 0.00 | 0.00 | 0.00 | 48 | 1021.2 |
| 20260503110225 | 71 | 201 | 2.6 | 5.2 | 0.00 | 0.00 | 0.00 | 48 | 1021.2 |
| 20260503110104 | 71 | 198 | 2.6 | 6.1 | 0.00 | 0.00 | 0.00 | 48 | 1021.3 |
| 20260503100203 | 71 | 95 | 2.6 | 5.2 | 0.00 | 0.00 | 0.00 | 55 | 1021.8 |
| 20260503100104 | 71 | 95 | 2.6 | 5.2 | 0.00 | 0.00 | 0.00 | 55 | 1021.8 |
| 20260503090504 | 66 | 7 | 1.7 | 4.3 | 0.00 | 0.00 | 0.00 | 60 | 1022.2 |
| 20260503090404 | 66 | 357 | 1.7 | 4.3 | 0.00 | 0.00 | 0.00 | 59 | 1022.4 |
| 20260503090304 | 66 | 351 | 1.7 | 4.3 | 0.00 | 0.00 | 0.00 | 59 | 1022.4 |
| 20260503090204 | 66 | 353 | 1.7 | 4.3 | 0.00 | 0.00 | 0.00 | 59 | 1022.4 |
| 20260503081603 | 64 | 57 | 1.7 | 5.2 | 0.00 | 0.00 | 0.00 | 62 | 1022.6 |
| 20260503081503 | 64 | 69 | 1.7 | 5.2 | 0.00 | 0.00 | 0.00 | 62 | 1022.4 |
| 20260503081424 | 64 | 74 | 1.7 | 5.2 | 0.00 | 0.00 | 0.00 | 64 | 1022.4 |
| 20260503081303 | 64 | 71 | 1.7 | 5.2 | 0.00 | 0.00 | 0.00 | 63 | 1022.5 |
| 20260503081225 | 64 | 65 | 1.7 | 5.2 | 0.00 | 0.00 | 0.00 | 63 | 1022.5 |
| 20260503081104 | 64 | 60 | 1.7 | 5.2 | 0.00 | 0.00 | 0.00 | 65 | 1022.6 |
| 20260503081003 | 64 | 52 | 1.7 | 5.2 | 0.00 | 0.00 | 0.00 | 65 | 1022.5 |
| 20260503080904 | 64 | 36 | 1.7 | 5.2 | 0.00 | 0.00 | 0.00 | 65 | 1022.5 |
| 20260503080803 | 63 | 24 | 1.7 | 4.3 | 0.00 | 0.00 | 0.00 | 64 | 1022.7 |
| 20260503080703 | 63 | 8 | 1.7 | 4.3 | 0.00 | 0.00 | 0.00 | 65 | 1022.5 |
| 20260503080604 | 63 | 7 | 1.7 | 4.3 | 0.00 | 0.00 | 0.00 | 66 | 1022.5 |
| 20260503080504 | 63 | 6 | 1.7 | 4.3 | 0.00 | 0.00 | 0.00 | 66 | 1022.7 |
| 20260503080404 | 63 | 2 | 1.7 | 4.3 | 0.00 | 0.00 | 0.00 | 66 | 1022.5 |
| 20260503080303 | 63 | 2 | 1.7 | 4.3 | 0.00 | 0.00 | 0.00 | 66 | 1022.6 |
| 20260503080204 | 63 | 6 | 1.7 | 4.3 | 0.00 | 0.00 | 0.00 | 65 | 1022.6 |
| 20260503080104 | 62 | 13 | 1.7 | 4.3 | 0.00 | 0.00 | 0.00 | 66 | 1022.7 |
| 20260503072904 | 59 | 59 | 1.7 | 4.3 | 0.00 | 0.00 | 0.00 | 74 | 1022.7 |
| 20260503072824 | 59 | 62 | 1.7 | 4.3 | 0.00 | 0.00 | 0.00 | 74 | 1022.7 |
| 20260503072703 | 59 | 57 | 1.7 | 4.3 | 0.00 | 0.00 | 0.00 | 75 | 1022.8 |
| 20260503072605 | 59 | 54 | 1.7 | 4.3 | 0.00 | 0.00 | 0.00 | 75 | 1022.7 |
| 20260503072525 | 58 | 53 | 1.7 | 4.3 | 0.00 | 0.00 | 0.00 | 74 | 1022.7 |
| 20260503072403 | 58 | 53 | 1.7 | 4.3 | 0.00 | 0.00 | 0.00 | 75 | 1022.9 |
| 20260503072305 | 58 | 50 | 1.7 | 4.3 | 0.00 | 0.00 | 0.00 | 75 | 1022.7 |
| 20260503072204 | 58 | 50 | 1.7 | 3.5 | 0.00 | 0.00 | 0.00 | 76 | 1022.8 |
| 20260503072104 | 58 | 47 | 1.7 | 3.5 | 0.00 | 0.00 | 0.00 | 75 | 1022.8 |
| 20260503072004 | 58 | 44 | 1.7 | 3.5 | 0.00 | 0.00 | 0.00 | 75 | 1022.7 |
| 20260503071904 | 58 | 39 | 1.7 | 3.5 | 0.00 | 0.00 | 0.00 | 75 | 1022.8 |
| 20260503071804 | 58 | 38 | 1.7 | 3.5 | 0.00 | 0.00 | 0.00 | 74 | 1022.7 |
| 20260503071724 | 58 | 39 | 1.7 | 3.5 | 0.00 | 0.00 | 0.00 | 74 | 1022.7 |
| 20260503071603 | 59 | 34 | 1.7 | 3.5 | 0.00 | 0.00 | 0.00 | 75 | 1022.7 |
| 20260503071503 | 59 | 26 | 1.7 | 3.5 | 0.00 | 0.00 | 0.00 | 75 | 1022.7 |
| 20260503071403 | 59 | 22 | 1.7 | 3.5 | 0.00 | 0.00 | 0.00 | 74 | 1022.8 |
| 20260503071304 | 59 | 17 | 1.7 | 3.5 | 0.00 | 0.00 | 0.00 | 73 | 1022.8 |
| 20260503071224 | 59 | 17 | 1.7 | 3.5 | 0.00 | 0.00 | 0.00 | 73 | 1022.8 |
| 20260503071103 | 59 | 17 | 1.7 | 3.5 | 0.00 | 0.00 | 0.00 | 73 | 1022.9 |
| 20260503071004 | 59 | 14 | 1.7 | 4.3 | 0.00 | 0.00 | 0.00 | 73 | 1022.9 |
| 20260503070904 | 59 | 16 | 1.7 | 4.3 | 0.00 | 0.00 | 0.00 | 73 | 1022.7 |
| 20260503070805 | 59 | 15 | 1.7 | 4.3 | 0.00 | 0.00 | 0.00 | 73 | 1022.8 |
| 20260503070704 | 58 | 13 | 1.7 | 4.3 | 0.00 | 0.00 | 0.00 | 74 | 1022.8 |
| 20260503070603 | 58 | 16 | 1.7 | 4.3 | 0.00 | 0.00 | 0.00 | 74 | 1022.8 |
| 20260503070524 | 58 | 19 | 1.7 | 4.3 | 0.00 | 0.00 | 0.00 | 74 | 1022.8 |
| 20260503070404 | 58 | 22 | 1.7 | 4.3 | 0.00 | 0.00 | 0.00 | 74 | 1022.9 |
| 20260503070303 | 58 | 29 | 1.7 | 4.3 | 0.00 | 0.00 | 0.00 | 74 | 1022.9 |
| 20260503070203 | 58 | 31 | 1.7 | 4.3 | 0.00 | 0.00 | 0.00 | 74 | 1022.9 |
| 20260503070105 | 58 | 32 | 1.7 | 4.3 | 0.00 | 0.00 | 0.00 | 73 | 1023.0 |
| 20260503060303 | 51 | 349 | 2.6 | 5.2 | 0.00 | 0.00 | 0.00 | 84 | 1022.9 |
| 20260503060204 | 51 | 348 | 1.7 | 5.2 | 0.00 | 0.00 | 0.00 | 84 | 1022.8 |
| 20260503060125 | 51 | 348 | 1.7 | 5.2 | 0.00 | 0.00 | 0.00 | 84 | 1022.8 |
| 20260503055103 | 50 | 339 | 1.7 | 4.3 | 0.00 | 0.00 | 0.00 | 85 | 1023.0 |
| 20260503055005 | 50 | 340 | 1.7 | 4.3 | 0.00 | 0.00 | 0.00 | 85 | 1022.9 |
| 20260503054924 | 50 | 338 | 1.7 | 4.3 | 0.00 | 0.00 | 0.00 | 85 | 1022.9 |
| 20260503054804 | 50 | 332 | 1.7 | 5.2 | 0.00 | 0.00 | 0.00 | 85 | 1023.0 |
| 20260503054704 | 50 | 330 | 2.6 | 5.2 | 0.00 | 0.00 | 0.00 | 85 | 1022.8 |
| 20260503054604 | 50 | 332 | 2.6 | 5.2 | 0.00 | 0.00 | 0.00 | 86 | 1022.8 |
| 20260503054504 | 50 | 333 | 2.6 | 5.2 | 0.00 | 0.00 | 0.00 | 85 | 1022.9 |
| 20260503054403 | 50 | 333 | 1.7 | 5.2 | 0.00 | 0.00 | 0.00 | 86 | 1022.8 |
| 20260503054304 | 50 | 336 | 1.7 | 5.2 | 0.00 | 0.00 | 0.00 | 86 | 1023.0 |
| 20260503054204 | 50 | 338 | 1.7 | 5.2 | 0.00 | 0.00 | 0.00 | 86 | 1022.6 |
| 20260503054103 | 50 | 334 | 2.6 | 5.2 | 0.00 | 0.00 | 0.00 | 86 | 1022.7 |
| 20260503054004 | 50 | 334 | 2.6 | 6.1 | 0.00 | 0.00 | 0.00 | 86 | 1022.7 |
| 20260503053903 | 50 | 335 | 2.6 | 6.1 | 0.00 | 0.00 | 0.00 | 86 | 1022.8 |
| 20260503053804 | 50 | 338 | 2.6 | 6.1 | 0.00 | 0.00 | 0.00 | 86 | 1022.7 |
| 20260503053704 | 49 | 337 | 2.6 | 6.1 | 0.00 | 0.00 | 0.00 | 87 | 1022.6 |
| 20260503053624 | 49 | 337 | 2.6 | 6.1 | 0.00 | 0.00 | 0.00 | 86 | 1022.6 |
| 20260503053504 | 49 | 337 | 2.6 | 6.1 | 0.00 | 0.00 | 0.00 | 86 | 1022.7 |
| 20260503053403 | 49 | 337 | 2.6 | 6.1 | 0.00 | 0.00 | 0.00 | 86 | 1022.8 |
| 20260503053303 | 49 | 337 | 2.6 | 6.1 | 0.00 | 0.00 | 0.00 | 86 | 1023.0 |
| 20260503053225 | 49 | 337 | 2.6 | 6.1 | 0.00 | 0.00 | 0.00 | 86 | 1023.0 |
| 20260503053103 | 49 | 343 | 2.6 | 6.1 | 0.00 | 0.00 | 0.00 | 86 | 1022.8 |
| 20260503053003 | 49 | 344 | 2.6 | 4.3 | 0.00 | 0.00 | 0.00 | 86 | 1022.9 |
| 20260503052903 | 49 | 346 | 2.6 | 4.3 | 0.00 | 0.00 | 0.00 | 87 | 1022.7 |
| 20260503052803 | 49 | 349 | 1.7 | 3.5 | 0.00 | 0.00 | 0.00 | 86 | 1022.9 |
| 20260503052703 | 49 | 348 | 2.6 | 3.5 | 0.00 | 0.00 | 0.00 | 87 | 1022.8 |
| 20260503052603 | 49 | 348 | 1.7 | 4.3 | 0.00 | 0.00 | 0.00 | 87 | 1022.6 |
| 20260503052503 | 49 | 348 | 1.7 | 4.3 | 0.00 | 0.00 | 0.00 | 87 | 1022.7 |
| 20260503052403 | 49 | 349 | 1.7 | 4.3 | 0.00 | 0.00 | 0.00 | 87 | 1022.7 |
| 20260503052306 | 49 | 348 | 1.7 | 4.3 | 0.00 | 0.00 | 0.00 | 87 | 1022.6 |
| 20260503052203 | 49 | 344 | 1.7 | 5.2 | 0.00 | 0.00 | 0.00 | 87 | 1022.7 |
| 20260503052125 | 49 | 343 | 1.7 | 5.2 | 0.00 | 0.00 | 0.00 | 87 | 1022.7 |
| 20260503052004 | 49 | 344 | 1.7 | 5.2 | 0.00 | 0.00 | 0.00 | 87 | 1022.7 |
| 20260503051903 | 49 | 344 | 1.7 | 5.2 | 0.00 | 0.00 | 0.00 | 87 | 1023.0 |
| 20260503051803 | 49 | 345 | 1.7 | 5.2 | 0.00 | 0.00 | 0.00 | 87 | 1022.8 |
| 20260503051703 | 49 | 351 | 1.7 | 5.2 | 0.00 | 0.00 | 0.00 | 88 | 1022.9 |
| 20260503051604 | 49 | 355 | 1.7 | 5.2 | 0.00 | 0.00 | 0.00 | 88 | 1022.8 |
| 20260503051524 | 49 | 357 | 1.7 | 5.2 | 0.00 | 0.00 | 0.00 | 88 | 1022.8 |
| 20260503051403 | 49 | 355 | 1.7 | 5.2 | 0.00 | 0.00 | 0.00 | 88 | 1022.8 |
| 20260503051303 | 49 | 360 | 1.7 | 5.2 | 0.00 | 0.00 | 0.00 | 88 | 1022.7 |
| 20260503051225 | 49 | 8 | 1.7 | 3.5 | 0.00 | 0.00 | 0.00 | 88 | 1022.7 |
| 20260503051103 | 49 | 11 | 1.7 | 3.5 | 0.00 | 0.00 | 0.00 | 89 | 1022.9 |
| 20260503051003 | 49 | 10 | 1.7 | 3.5 | 0.00 | 0.00 | 0.00 | 89 | 1022.7 |
| 20260503050903 | 49 | 7 | 1.7 | 3.5 | 0.00 | 0.00 | 0.00 | 89 | 1022.7 |
| 20260503050824 | 49 | 6 | 1.7 | 3.5 | 0.00 | 0.00 | 0.00 | 89 | 1022.7 |
| 20260503050703 | 49 | 1 | 1.7 | 3.5 | 0.00 | 0.00 | 0.00 | 90 | 1022.8 |
| 20260503050603 | 49 | 360 | 1.7 | 3.5 | 0.00 | 0.00 | 0.00 | 90 | 1022.7 |
| 20260503050525 | 49 | 358 | 1.7 | 3.5 | 0.00 | 0.00 | 0.00 | 90 | 1022.7 |
| 20260503050404 | 49 | 354 | 1.7 | 3.5 | 0.00 | 0.00 | 0.00 | 90 | 1022.7 |
| 20260503050304 | 48 | 351 | 1.7 | 3.5 | 0.00 | 0.00 | 0.00 | 90 | 1022.7 |
| 20260503050204 | 49 | 349 | 1.7 | 3.5 | 0.00 | 0.00 | 0.00 | 91 | 1022.7 |
| 20260503050124 | 48 | 348 | 1.7 | 3.5 | 0.00 | 0.00 | 0.00 | 91 | 1022.7 |
| 20260503050003 | 48 | 346 | 2.6 | 3.5 | 0.00 | 0.00 | 0.00 | 91 | 1022.6 |
| 20260503045904 | 48 | 346 | 1.7 | 3.5 | 0.00 | 0.00 | 0.00 | 91 | 1022.6 |
| 20260503045803 | 48 | 344 | 2.6 | 3.5 | 0.00 | 0.00 | 0.00 | 91 | 1022.7 |
| 20260503045703 | 48 | 342 | 2.6 | 3.5 | 0.00 | 0.00 | 0.00 | 91 | 1022.7 |
| 20260503045604 | 48 | 342 | 2.6 | 3.5 | 0.00 | 0.00 | 0.00 | 92 | 1022.6 |
| 20260503045504 | 48 | 339 | 2.6 | 3.5 | 0.00 | 0.00 | 0.00 | 92 | 1022.5 |
| 20260503045403 | 48 | 338 | 2.6 | 4.3 | 0.00 | 0.00 | 0.00 | 92 | 1022.8 |
| 20260503045305 | 48 | 338 | 2.6 | 4.3 | 0.00 | 0.00 | 0.00 | 92 | 1022.5 |
| 20260503045203 | 48 | 335 | 2.6 | 4.3 | 0.00 | 0.00 | 0.00 | 93 | 1022.8 |
| 20260503045103 | 48 | 334 | 2.6 | 4.3 | 0.00 | 0.00 | 0.00 | 93 | 1022.6 |
| 20260503045024 | 48 | 333 | 2.6 | 4.3 | 0.00 | 0.00 | 0.00 | 93 | 1022.6 |
| 20260503044903 | 48 | 330 | 2.6 | 5.2 | 0.00 | 0.00 | 0.00 | 94 | 1022.4 |
| 20260503044824 | 48 | 329 | 2.6 | 5.2 | 0.00 | 0.00 | 0.00 | 94 | 1022.4 |
| 20260503044703 | 48 | 330 | 2.6 | 5.2 | 0.00 | 0.00 | 0.00 | 94 | 1022.4 |
| 20260503044603 | 48 | 330 | 2.6 | 5.2 | 0.00 | 0.00 | 0.00 | 94 | 1022.6 |
| 20260503044504 | 48 | 333 | 2.6 | 5.2 | 0.00 | 0.00 | 0.00 | 94 | 1022.6 |
| 20260503044404 | 48 | 336 | 1.7 | 5.2 | 0.00 | 0.00 | 0.00 | 94 | 1022.6 |
| 20260503044304 | 48 | 338 | 1.7 | 5.2 | 0.00 | 0.00 | 0.00 | 94 | 1022.5 |
| 20260503044203 | 47 | 342 | 1.7 | 5.2 | 0.00 | 0.00 | 0.00 | 93 | 1022.4 |
| 20260503044103 | 47 | 348 | 1.7 | 5.2 | 0.00 | 0.00 | 0.00 | 93 | 1022.5 |
| 20260503044003 | 47 | 357 | 1.7 | 5.2 | 0.00 | 0.00 | 0.00 | 93 | 1022.5 |
| 20260503043924 | 47 | 4 | 1.7 | 5.2 | 0.00 | 0.00 | 0.00 | 93 | 1022.5 |
| 20260503043824 | 47 | 18 | 0.9 | 4.3 | 0.00 | 0.00 | 0.00 | 92 | 1022.4 |
| 20260503043703 | 47 | 32 | 0.9 | 3.5 | 0.00 | 0.00 | 0.00 | 89 | 1022.5 |
| 20260503043604 | 47 | 38 | 0.9 | 2.6 | 0.00 | 0.00 | 0.00 | 89 | 1022.4 |
| 20260503043503 | 47 | 42 | 0.9 | 2.6 | 0.00 | 0.00 | 0.00 | 89 | 1022.4 |
| 20260503043403 | 47 | 43 | 0.9 | 2.6 | 0.00 | 0.00 | 0.00 | 89 | 1022.2 |
| 20260503043325 | 47 | 43 | 0.9 | 2.6 | 0.00 | 0.00 | 0.00 | 89 | 1022.2 |
| 20260503043203 | 47 | 47 | 0.9 | 2.6 | 0.00 | 0.00 | 0.00 | 89 | 1022.3 |
| 20260503043103 | 47 | 46 | 0.9 | 2.6 | 0.00 | 0.00 | 0.00 | 89 | 1022.5 |
| 20260503043004 | 47 | 45 | 0.9 | 1.7 | 0.00 | 0.00 | 0.00 | 89 | 1022.4 |
| 20260503042903 | 47 | 43 | 0.9 | 1.7 | 0.00 | 0.00 | 0.00 | 89 | 1022.3 |
| 20260503042803 | 47 | 44 | 0.9 | 1.7 | 0.00 | 0.00 | 0.00 | 89 | 1022.6 |
| 20260503042703 | 47 | 44 | 0.9 | 1.7 | 0.00 | 0.00 | 0.00 | 90 | 1022.4 |
| 20260503042603 | 47 | 45 | 0.9 | 1.7 | 0.00 | 0.00 | 0.00 | 89 | 1022.4 |
| 20260503042504 | 47 | 45 | 0.9 | 1.7 | 0.00 | 0.00 | 0.00 | 89 | 1022.5 |
| 20260503042403 | 47 | 40 | 0.9 | 1.7 | 0.00 | 0.00 | 0.00 | 89 | 1022.5 |
| 20260503042305 | 47 | 37 | 0.9 | 1.7 | 0.00 | 0.00 | 0.00 | 89 | 1022.5 |
| 20260503042203 | 47 | 37 | 0.9 | 1.7 | 0.00 | 0.00 | 0.00 | 89 | 1022.3 |
| 20260503042103 | 47 | 36 | 0.9 | 1.7 | 0.00 | 0.00 | 0.00 | 89 | 1022.4 |
| 20260503042005 | 47 | 36 | 0.9 | 1.7 | 0.00 | 0.00 | 0.00 | 89 | 1022.3 |
| 20260503041904 | 47 | 36 | 0.9 | 2.6 | 0.00 | 0.00 | 0.00 | 89 | 1022.3 |
| 20260503041805 | 47 | 38 | 0.9 | 2.6 | 0.00 | 0.00 | 0.00 | 88 | 1022.5 |
| 20260503041705 | 48 | 44 | 0.9 | 2.6 | 0.00 | 0.00 | 0.00 | 88 | 1022.3 |
| 20260503041603 | 48 | 51 | 0.9 | 2.6 | 0.00 | 0.00 | 0.00 | 88 | 1022.4 |
| 20260503041503 | 48 | 57 | 0.9 | 2.6 | 0.00 | 0.00 | 0.00 | 87 | 1022.4 |
| 20260503041403 | 48 | 64 | 0.9 | 2.6 | 0.00 | 0.00 | 0.00 | 87 | 1022.3 |
| 20260503041303 | 48 | 62 | 0.9 | 2.6 | 0.00 | 0.00 | 0.00 | 87 | 1022.3 |
| 20260503041204 | 48 | 59 | 0.9 | 2.6 | 0.00 | 0.00 | 0.00 | 87 | 1022.4 |
| 20260503041103 | 48 | 58 | 0.9 | 2.6 | 0.00 | 0.00 | 0.00 | 87 | 1022.3 |
| 20260503041003 | 49 | 60 | 1.7 | 2.6 | 0.00 | 0.00 | 0.00 | 87 | 1022.2 |
| 20260503040904 | 49 | 60 | 1.7 | 2.6 | 0.00 | 0.00 | 0.00 | 88 | 1022.4 |
| 20260503040803 | 49 | 57 | 1.7 | 2.6 | 0.00 | 0.00 | 0.00 | 88 | 1022.4 |
| 20260503040703 | 49 | 54 | 0.9 | 2.6 | 0.00 | 0.00 | 0.00 | 88 | 1022.2 |
| 20260503040603 | 49 | 46 | 0.9 | 2.6 | 0.00 | 0.00 | 0.00 | 88 | 1022.3 |
| 20260503040504 | 49 | 38 | 0.9 | 2.6 | 0.00 | 0.00 | 0.00 | 89 | 1022.3 |
| 20260503040404 | 49 | 31 | 0.9 | 2.6 | 0.00 | 0.00 | 0.00 | 89 | 1022.3 |
| 20260503040304 | 49 | 29 | 0.9 | 2.6 | 0.00 | 0.00 | 0.00 | 89 | 1022.3 |
| 20260503040203 | 50 | 30 | 0.9 | 2.6 | 0.00 | 0.00 | 0.00 | 90 | 1022.3 |
| 20260503040103 | 50 | 26 | 0.9 | 2.6 | 0.00 | 0.00 | 0.00 | 90 | 1022.3 |
| 20260503040004 | 50 | 20 | 0.9 | 2.6 | 0.00 | 0.00 | 0.00 | 90 | 1022.2 |
| 20260503035925 | 50 | 18 | 0.9 | 2.6 | 0.00 | 0.00 | 0.00 | 90 | 1022.2 |
| 20260503035805 | 50 | 14 | 0.9 | 2.6 | 0.00 | 0.00 | 0.00 | 90 | 1022.2 |
| 20260503035703 | 50 | 8 | 0.9 | 2.6 | 0.00 | 0.00 | 0.00 | 91 | 1022.1 |
| 20260503035604 | 50 | 6 | 0.9 | 2.6 | 0.00 | 0.00 | 0.00 | 91 | 1022.3 |
| 20260503035503 | 50 | 2 | 0.9 | 2.6 | 0.00 | 0.00 | 0.00 | 91 | 1022.3 |
| 20260503035403 | 50 | 357 | 1.7 | 3.5 | 0.00 | 0.00 | 0.00 | 92 | 1022.3 |
| 20260503035324 | 50 | 355 | 1.7 | 3.5 | 0.00 | 0.00 | 0.00 | 92 | 1022.3 |
| 20260503035225 | 50 | 350 | 1.7 | 3.5 | 0.00 | 0.00 | 0.00 | 92 | 1022.1 |
| 20260503035103 | 50 | 347 | 1.7 | 3.5 | 0.00 | 0.00 | 0.00 | 92 | 1022.3 |
| 20260503035006 | 50 | 345 | 1.7 | 3.5 | 0.00 | 0.00 | 0.00 | 92 | 1022.2 |
| 20260503034905 | 50 | 341 | 1.7 | 3.5 | 0.00 | 0.00 | 0.00 | 93 | 1022.1 |
| 20260503034806 | 50 | 343 | 1.7 | 3.5 | 0.00 | 0.00 | 0.00 | 93 | 1022.1 |
| 20260503034705 | 50 | 344 | 1.7 | 3.5 | 0.00 | 0.00 | 0.00 | 93 | 1022.1 |
| 20260503034627 | 50 | 345 | 1.7 | 3.5 | 0.00 | 0.00 | 0.00 | 93 | 1022.1 |
| 20260503034505 | 50 | 352 | 1.7 | 3.5 | 0.00 | 0.00 | 0.00 | 94 | 1022.1 |
| 20260503034426 | 50 | 355 | 1.7 | 3.5 | 0.00 | 0.00 | 0.00 | 94 | 1022.1 |
| 20260503034305 | 49 | 1 | 1.7 | 3.5 | 0.00 | 0.00 | 0.00 | 93 | 1022.0 |
| 20260503034226 | 49 | 2 | 1.7 | 3.5 | 0.00 | 0.00 | 0.00 | 93 | 1022.0 |
| 20260503034105 | 49 | 7 | 0.9 | 2.6 | 0.00 | 0.00 | 0.00 | 91 | 1022.1 |
| 20260503034026 | 49 | 8 | 0.9 | 2.6 | 0.00 | 0.00 | 0.00 | 91 | 1022.1 |
| 20260503033905 | 49 | 9 | 0.9 | 2.6 | 0.00 | 0.00 | 0.00 | 88 | 1022.0 |
| 20260503033805 | 49 | 4 | 0.9 | 2.6 | 0.00 | 0.00 | 0.00 | 88 | 1022.0 |
| 20260503033705 | 49 | 358 | 0.9 | 2.6 | 0.00 | 0.00 | 0.00 | 88 | 1022.1 |
| 20260503033605 | 49 | 350 | 0.9 | 2.6 | 0.00 | 0.00 | 0.00 | 89 | 1022.2 |
| 20260503033505 | 49 | 342 | 0.9 | 2.6 | 0.00 | 0.00 | 0.00 | 89 | 1022.2 |
| 20260503033426 | 49 | 339 | 0.9 | 2.6 | 0.00 | 0.00 | 0.00 | 89 | 1022.2 |
| 20260503033305 | 49 | 333 | 0.9 | 2.6 | 0.00 | 0.00 | 0.00 | 89 | 1022.2 |
| 20260503033205 | 49 | 331 | 0.9 | 2.6 | 0.00 | 0.00 | 0.00 | 89 | 1022.3 |
| 20260503033105 | 49 | 330 | 0.9 | 2.6 | 0.00 | 0.00 | 0.00 | 90 | 1022.2 |
| 20260503033005 | 49 | 328 | 0.9 | 2.6 | 0.00 | 0.00 | 0.00 | 89 | 1022.3 |
| 20260503032906 | 49 | 326 | 1.7 | 3.5 | 0.00 | 0.00 | 0.00 | 89 | 1022.1 |
| 20260503032805 | 49 | 324 | 1.7 | 3.5 | 0.00 | 0.00 | 0.00 | 90 | 1022.3 |
| 20260503032705 | 49 | 324 | 1.7 | 3.5 | 0.00 | 0.00 | 0.00 | 89 | 1022.4 |
| 20260503032628 | 49 | 322 | 1.7 | 3.5 | 0.00 | 0.00 | 0.00 | 89 | 1022.4 |
| 20260503032505 | 49 | 319 | 1.7 | 3.5 | 0.00 | 0.00 | 0.00 | 89 | 1022.3 |
| 20260503032405 | 49 | 317 | 1.7 | 3.5 | 0.00 | 0.00 | 0.00 | 90 | 1022.3 |
| 20260503032305 | 49 | 317 | 1.7 | 3.5 | 0.00 | 0.00 | 0.00 | 90 | 1022.4 |
| 20260503032205 | 49 | 315 | 1.7 | 3.5 | 0.00 | 0.00 | 0.00 | 90 | 1022.4 |
| 20260503032126 | 49 | 314 | 1.7 | 3.5 | 0.00 | 0.00 | 0.00 | 90 | 1022.4 |
| 20260503032026 | 49 | 314 | 1.7 | 3.5 | 0.00 | 0.00 | 0.00 | 90 | 1022.2 |
| 20260503031926 | 49 | 314 | 1.7 | 3.5 | 0.00 | 0.00 | 0.00 | 90 | 1022.3 |
| 20260503031805 | 49 | 315 | 1.7 | 3.5 | 0.00 | 0.00 | 0.00 | 90 | 1022.4 |
| 20260503031705 | 49 | 314 | 1.7 | 3.5 | 0.00 | 0.00 | 0.00 | 90 | 1022.3 |
| 20260503031605 | 49 | 311 | 1.7 | 3.5 | 0.00 | 0.00 | 0.00 | 89 | 1022.1 |
| 20260503031505 | 49 | 310 | 1.7 | 3.5 | 0.00 | 0.00 | 0.00 | 88 | 1022.3 |
| 20260503031405 | 49 | 308 | 1.7 | 3.5 | 0.00 | 0.00 | 0.00 | 88 | 1022.4 |
| 20260503031327 | 49 | 306 | 1.7 | 3.5 | 0.00 | 0.00 | 0.00 | 89 | 1022.4 |
| 20260503031205 | 49 | 307 | 1.7 | 3.5 | 0.00 | 0.00 | 0.00 | 88 | 1022.4 |
| 20260503031105 | 49 | 308 | 1.7 | 4.3 | 0.00 | 0.00 | 0.00 | 88 | 1022.5 |
| 20260503031005 | 49 | 309 | 1.7 | 4.3 | 0.00 | 0.00 | 0.00 | 88 | 1022.2 |
| 20260503030905 | 49 | 307 | 1.7 | 4.3 | 0.00 | 0.00 | 0.00 | 88 | 1022.3 |
| 20260503030805 | 49 | 309 | 1.7 | 4.3 | 0.00 | 0.00 | 0.00 | 88 | 1022.3 |
| 20260503030705 | 49 | 315 | 1.7 | 4.3 | 0.00 | 0.00 | 0.00 | 88 | 1022.2 |
| 20260503030626 | 49 | 319 | 1.7 | 4.3 | 0.00 | 0.00 | 0.00 | 87 | 1022.2 |
| 20260503030505 | 49 | 324 | 1.7 | 4.3 | 0.00 | 0.00 | 0.00 | 87 | 1022.2 |
| 20260503030405 | 49 | 327 | 1.7 | 4.3 | 0.00 | 0.00 | 0.00 | 88 | 1022.3 |
| 20260503030306 | 49 | 329 | 1.7 | 4.3 | 0.00 | 0.00 | 0.00 | 88 | 1022.2 |
| 20260503030205 | 49 | 328 | 1.7 | 4.3 | 0.00 | 0.00 | 0.00 | 88 | 1022.2 |
| 20260503030105 | 49 | 328 | 1.7 | 4.3 | 0.00 | 0.00 | 0.00 | 88 | 1022.2 |
| 20260503030005 | 49 | 328 | 1.7 | 3.5 | 0.00 | 0.00 | 0.00 | 88 | 1022.4 |
| 20260503025905 | 49 | 330 | 1.7 | 3.5 | 0.00 | 0.00 | 0.00 | 88 | 1022.5 |
| 20260503025805 | 49 | 332 | 1.7 | 3.5 | 0.00 | 0.00 | 0.00 | 88 | 1022.4 |
| 20260503025705 | 49 | 330 | 1.7 | 3.5 | 0.00 | 0.00 | 0.00 | 87 | 1022.3 |
| 20260503025606 | 49 | 332 | 1.7 | 3.5 | 0.00 | 0.00 | 0.00 | 87 | 1022.3 |
| 20260503025505 | 49 | 332 | 0.9 | 3.5 | 0.00 | 0.00 | 0.00 | 87 | 1022.3 |
| 20260503025426 | 49 | 331 | 1.7 | 3.5 | 0.00 | 0.00 | 0.00 | 87 | 1022.3 |
| 20260503025305 | 49 | 335 | 1.7 | 3.5 | 0.00 | 0.00 | 0.00 | 86 | 1022.3 |
| 20260503025205 | 49 | 340 | 1.7 | 3.5 | 0.00 | 0.00 | 0.00 | 86 | 1022.4 |
| 20260503025105 | 49 | 345 | 1.7 | 3.5 | 0.00 | 0.00 | 0.00 | 87 | 1022.5 |
| 20260503025005 | 49 | 347 | 0.9 | 3.5 | 0.00 | 0.00 | 0.00 | 87 | 1022.4 |
| 20260503024905 | 49 | 349 | 0.9 | 3.5 | 0.00 | 0.00 | 0.00 | 87 | 1022.5 |
| 20260503024806 | 49 | 353 | 0.9 | 3.5 | 0.00 | 0.00 | 0.00 | 88 | 1022.3 |
| 20260503024726 | 49 | 350 | 1.7 | 3.5 | 0.00 | 0.00 | 0.00 | 88 | 1022.3 |
| 20260503024605 | 49 | 350 | 1.7 | 3.5 | 0.00 | 0.00 | 0.00 | 87 | 1022.3 |
| 20260503024505 | 49 | 349 | 1.7 | 3.5 | 0.00 | 0.00 | 0.00 | 87 | 1022.3 |
| 20260503024406 | 49 | 349 | 1.7 | 3.5 | 0.00 | 0.00 | 0.00 | 87 | 1022.4 |
| 20260503024305 | 49 | 347 | 1.7 | 3.5 | 0.00 | 0.00 | 0.00 | 87 | 1022.4 |
| 20260503024205 | 49 | 343 | 1.7 | 3.5 | 0.00 | 0.00 | 0.00 | 87 | 1022.2 |
| 20260503024105 | 49 | 341 | 1.7 | 3.5 | 0.00 | 0.00 | 0.00 | 87 | 1022.2 |
| 20260503024005 | 49 | 340 | 1.7 | 3.5 | 0.00 | 0.00 | 0.00 | 87 | 1022.2 |
| 20260503023905 | 49 | 340 | 1.7 | 3.5 | 0.00 | 0.00 | 0.00 | 88 | 1022.2 |
| 20260503023806 | 49 | 339 | 1.7 | 3.5 | 0.00 | 0.00 | 0.00 | 88 | 1022.3 |
| 20260503023705 | 49 | 342 | 1.7 | 3.5 | 0.00 | 0.00 | 0.00 | 87 | 1022.2 |
| 20260503023605 | 49 | 341 | 1.7 | 3.5 | 0.00 | 0.00 | 0.00 | 87 | 1022.2 |
| 20260503023506 | 49 | 344 | 1.7 | 3.5 | 0.00 | 0.00 | 0.00 | 87 | 1022.3 |
| 20260503023405 | 49 | 345 | 1.7 | 3.5 | 0.00 | 0.00 | 0.00 | 87 | 1022.2 |
| 20260503023305 | 49 | 347 | 1.7 | 3.5 | 0.00 | 0.00 | 0.00 | 87 | 1022.2 |
| 20260503023206 | 50 | 345 | 1.7 | 3.5 | 0.00 | 0.00 | 0.00 | 86 | 1022.3 |
| 20260503023106 | 50 | 346 | 1.7 | 3.5 | 0.00 | 0.00 | 0.00 | 86 | 1022.3 |
| 20260503023005 | 50 | 345 | 1.7 | 3.5 | 0.00 | 0.00 | 0.00 | 86 | 1022.2 |
| 20260503022905 | 50 | 344 | 1.7 | 3.5 | 0.00 | 0.00 | 0.00 | 87 | 1022.3 |
| 20260503022805 | 50 | 344 | 1.7 | 3.5 | 0.00 | 0.00 | 0.00 | 87 | 1022.3 |
| 20260503022705 | 50 | 343 | 1.7 | 3.5 | 0.00 | 0.00 | 0.00 | 87 | 1022.2 |
| 20260503022626 | 50 | 344 | 1.7 | 3.5 | 0.00 | 0.00 | 0.00 | 87 | 1022.2 |
| 20260503022505 | 50 | 344 | 1.7 | 3.5 | 0.00 | 0.00 | 0.00 | 87 | 1022.2 |
| 20260503022405 | 50 | 344 | 1.7 | 3.5 | 0.00 | 0.00 | 0.00 | 87 | 1022.2 |
| 20260503022305 | 50 | 345 | 1.7 | 3.5 | 0.00 | 0.00 | 0.00 | 87 | 1022.4 |
| 20260503022205 | 50 | 345 | 1.7 | 3.5 | 0.00 | 0.00 | 0.00 | 87 | 1022.3 |
| 20260503022105 | 50 | 347 | 1.7 | 3.5 | 0.00 | 0.00 | 0.00 | 87 | 1022.4 |
| 20260503022005 | 50 | 350 | 1.7 | 3.5 | 0.00 | 0.00 | 0.00 | 87 | 1022.6 |
| 20260503021807 | 50 | 350 | 1.7 | 3.5 | 0.00 | 0.00 | 0.00 | 86 | 1022.4 |
| 20260503021705 | 50 | 355 | 0.9 | 2.6 | 0.00 | 0.00 | 0.00 | 86 | 1022.2 |
| 20260503021627 | 50 | 357 | 0.9 | 2.6 | 0.00 | 0.00 | 0.00 | 87 | 1022.2 |
| 20260503021505 | 50 | 359 | 0.9 | 2.6 | 0.00 | 0.00 | 0.00 | 86 | 1022.5 |
| 20260503021405 | 50 | 359 | 0.9 | 2.6 | 0.00 | 0.00 | 0.00 | 86 | 1022.4 |
| 20260503021305 | 50 | 2 | 0.9 | 2.6 | 0.00 | 0.00 | 0.00 | 86 | 1022.6 |
| 20260503021205 | 50 | 7 | 0.9 | 2.6 | 0.00 | 0.00 | 0.00 | 86 | 1022.5 |
| 20260503021104 | 50 | 5 | 0.9 | 2.6 | 0.00 | 0.00 | 0.00 | 85 | 1022.4 |
| 20260503021006 | 50 | 5 | 0.9 | 2.6 | 0.00 | 0.00 | 0.00 | 86 | 1022.4 |
| 20260503020906 | 50 | 6 | 0.9 | 2.6 | 0.00 | 0.00 | 0.00 | 86 | 1022.3 |
| 20260503020805 | 50 | 1 | 0.9 | 2.6 | 0.00 | 0.00 | 0.00 | 86 | 1022.3 |
| 20260503020706 | 50 | 352 | 1.7 | 4.3 | 0.00 | 0.00 | 0.00 | 87 | 1022.3 |
| 20260503020607 | 50 | 345 | 1.7 | 4.3 | 0.00 | 0.00 | 0.00 | 87 | 1022.6 |
| 20260503020505 | 50 | 343 | 1.7 | 4.3 | 0.00 | 0.00 | 0.00 | 86 | 1022.5 |
| 20260503020405 | 50 | 340 | 1.7 | 4.3 | 0.00 | 0.00 | 0.00 | 87 | 1022.7 |
| 20260503020305 | 50 | 334 | 1.7 | 4.3 | 0.00 | 0.00 | 0.00 | 87 | 1022.5 |
| 20260503020206 | 50 | 332 | 1.7 | 4.3 | 0.00 | 0.00 | 0.00 | 87 | 1022.2 |
| 20260503020105 | 50 | 332 | 1.7 | 4.3 | 0.00 | 0.00 | 0.00 | 87 | 1022.3 |
| 20260503020005 | 50 | 331 | 1.7 | 4.3 | 0.00 | 0.00 | 0.00 | 88 | 1022.3 |
| 20260503015904 | 50 | 331 | 1.7 | 4.3 | 0.00 | 0.00 | 0.00 | 88 | 1022.4 |
| 20260503015804 | 50 | 336 | 1.7 | 4.3 | 0.00 | 0.00 | 0.00 | 88 | 1022.6 |
| 20260503015704 | 50 | 339 | 1.7 | 3.5 | 0.00 | 0.00 | 0.00 | 88 | 1022.3 |
| 20260503015606 | 50 | 341 | 1.7 | 3.5 | 0.00 | 0.00 | 0.00 | 89 | 1022.3 |
| 20260503015505 | 50 | 342 | 1.7 | 3.5 | 0.00 | 0.00 | 0.00 | 89 | 1022.4 |
| 20260503015405 | 50 | 346 | 1.7 | 3.5 | 0.00 | 0.00 | 0.00 | 89 | 1022.4 |
| 20260503015305 | 50 | 347 | 1.7 | 3.5 | 0.00 | 0.00 | 0.00 | 89 | 1022.6 |
| 20260503015205 | 50 | 347 | 1.7 | 3.5 | 0.00 | 0.00 | 0.00 | 89 | 1022.3 |
| 20260503015105 | 50 | 346 | 1.7 | 3.5 | 0.00 | 0.00 | 0.00 | 89 | 1022.6 |
| 20260503015005 | 50 | 345 | 1.7 | 3.5 | 0.00 | 0.00 | 0.00 | 89 | 1022.4 |
| 20260503014905 | 50 | 344 | 1.7 | 3.5 | 0.00 | 0.00 | 0.00 | 89 | 1022.4 |
| 20260503014826 | 50 | 341 | 1.7 | 3.5 | 0.00 | 0.00 | 0.00 | 89 | 1022.4 |
| 20260503014705 | 50 | 339 | 1.7 | 3.5 | 0.00 | 0.00 | 0.00 | 90 | 1022.4 |
| 20260503014605 | 50 | 340 | 1.7 | 3.5 | 0.00 | 0.00 | 0.00 | 90 | 1022.4 |
| 20260503014505 | 50 | 339 | 1.7 | 3.5 | 0.00 | 0.00 | 0.00 | 90 | 1022.6 |
| 20260503014405 | 50 | 342 | 1.7 | 3.5 | 0.00 | 0.00 | 0.00 | 91 | 1022.4 |
| 20260503014326 | 50 | 344 | 1.7 | 3.5 | 0.00 | 0.00 | 0.00 | 91 | 1022.4 |
| 20260503014207 | 49 | 347 | 1.7 | 3.5 | 0.00 | 0.00 | 0.00 | 90 | 1022.6 |
| 20260503014126 | 49 | 348 | 1.7 | 3.5 | 0.00 | 0.00 | 0.00 | 90 | 1022.4 |
| 20260503014005 | 49 | 352 | 1.7 | 3.5 | 0.00 | 0.00 | 0.00 | 88 | 1022.4 |
| 20260503013926 | 49 | 353 | 0.9 | 3.5 | 0.00 | 0.00 | 0.00 | 88 | 1022.4 |
| 20260503013805 | 49 | 358 | 0.9 | 3.5 | 0.00 | 0.00 | 0.00 | 85 | 1022.4 |
| 20260503013706 | 49 | 2 | 0.9 | 3.5 | 0.00 | 0.00 | 0.00 | 85 | 1022.4 |
| 20260503013627 | 49 | 5 | 0.9 | 2.6 | 0.00 | 0.00 | 0.00 | 84 | 1022.4 |
| 20260503013505 | 49 | 6 | 0.9 | 2.6 | 0.00 | 0.00 | 0.00 | 85 | 1022.5 |
| 20260503013406 | 49 | 2 | 0.9 | 2.6 | 0.00 | 0.00 | 0.00 | 85 | 1022.3 |
| 20260503013305 | 49 | 358 | 0.9 | 2.6 | 0.00 | 0.00 | 0.00 | 85 | 1022.5 |
| 20260503013206 | 49 | 357 | 0.9 | 2.6 | 0.00 | 0.00 | 0.00 | 86 | 1022.5 |
| 20260503013105 | 49 | 358 | 0.9 | 2.6 | 0.00 | 0.00 | 0.00 | 87 | 1022.7 |
| 20260503013005 | 49 | 358 | 0.9 | 2.6 | 0.00 | 0.00 | 0.00 | 87 | 1022.5 |
| 20260503012905 | 49 | 358 | 0.9 | 2.6 | 0.00 | 0.00 | 0.00 | 87 | 1022.7 |
| 20260503012805 | 49 | 360 | 0.9 | 2.6 | 0.00 | 0.00 | 0.00 | 87 | 1022.5 |
| 20260503012705 | 49 | 358 | 0.9 | 2.6 | 0.00 | 0.00 | 0.00 | 87 | 1022.7 |
| 20260503012605 | 49 | 358 | 0.9 | 2.6 | 0.00 | 0.00 | 0.00 | 87 | 1022.6 |
| 20260503012505 | 49 | 356 | 0.9 | 2.6 | 0.00 | 0.00 | 0.00 | 86 | 1022.7 |
| 20260503012405 | 49 | 354 | 0.9 | 2.6 | 0.00 | 0.00 | 0.00 | 87 | 1022.6 |
| 20260503012305 | 49 | 360 | 0.9 | 2.6 | 0.00 | 0.00 | 0.00 | 86 | 1022.6 |
| 20260503012205 | 49 | 6 | 0.9 | 2.6 | 0.00 | 0.00 | 0.00 | 85 | 1022.6 |
| 20260503012128 | 49 | 6 | 0.9 | 1.7 | 0.00 | 0.00 | 0.00 | 84 | 1022.6 |
| 20260503012006 | 49 | 6 | 0.9 | 1.7 | 0.00 | 0.00 | 0.00 | 84 | 1022.4 |
| 20260503011905 | 49 | 6 | 0.9 | 1.7 | 0.00 | 0.00 | 0.00 | 84 | 1022.7 |
| 20260503011805 | 49 | 7 | 0.9 | 1.7 | 0.00 | 0.00 | 0.00 | 83 | 1022.6 |
| 20260503011705 | 49 | 13 | 0.9 | 1.7 | 0.00 | 0.00 | 0.00 | 83 | 1022.5 |
| 20260503011627 | 49 | 12 | 0.9 | 1.7 | 0.00 | 0.00 | 0.00 | 83 | 1022.5 |
| 20260503011505 | 49 | 21 | 0.9 | 1.7 | 0.00 | 0.00 | 0.00 | 82 | 1022.7 |
| 20260503011406 | 49 | 26 | 0.9 | 1.7 | 0.00 | 0.00 | 0.00 | 83 | 1022.7 |
| 20260503011306 | 49 | 26 | 0.9 | 1.7 | 0.00 | 0.00 | 0.00 | 83 | 1022.7 |
| 20260503011205 | 49 | 23 | 0.9 | 1.7 | 0.00 | 0.00 | 0.00 | 82 | 1022.6 |
| 20260503011105 | 49 | 22 | 0.9 | 1.7 | 0.00 | 0.00 | 0.00 | 82 | 1022.6 |
| 20260503011005 | 49 | 29 | 0.9 | 1.7 | 0.00 | 0.00 | 0.00 | 81 | 1022.5 |
| 20260503010928 | 49 | 32 | 0.9 | 1.7 | 0.00 | 0.00 | 0.00 | 81 | 1022.5 |
| 20260503010805 | 49 | 41 | 0.9 | 1.7 | 0.00 | 0.00 | 0.00 | 82 | 1022.5 |
| 20260503010705 | 49 | 46 | 0.9 | 1.7 | 0.00 | 0.00 | 0.00 | 80 | 1022.5 |
| 20260503010605 | 49 | 56 | 0.9 | 1.7 | 0.00 | 0.00 | 0.00 | 81 | 1022.6 |
| 20260503010525 | 49 | 57 | 0.9 | 1.7 | 0.00 | 0.00 | 0.00 | 81 | 1022.6 |
| 20260503010405 | 50 | 63 | 0.9 | 1.7 | 0.00 | 0.00 | 0.00 | 81 | 1022.6 |
| 20260503010305 | 50 | 63 | 0.9 | 1.7 | 0.00 | 0.00 | 0.00 | 81 | 1022.9 |
| 20260503010205 | 50 | 60 | 0.9 | 2.6 | 0.00 | 0.00 | 0.00 | 82 | 1022.8 |
| 20260503010126 | 50 | 55 | 0.9 | 2.6 | 0.00 | 0.00 | 0.00 | 81 | 1022.8 |
| 20260503010026 | 50 | 44 | 0.9 | 3.5 | 0.00 | 0.00 | 0.00 | 80 | 1022.7 |
| 20260503005905 | 50 | 24 | 0.9 | 3.5 | 0.00 | 0.00 | 0.00 | 80 | 1022.7 |
| 20260503005826 | 50 | 18 | 0.9 | 3.5 | 0.00 | 0.00 | 0.00 | 80 | 1022.7 |
| 20260503005705 | 50 | 5 | 1.7 | 3.5 | 0.00 | 0.00 | 0.00 | 80 | 1022.7 |
| 20260503005605 | 50 | 360 | 1.7 | 3.5 | 0.00 | 0.00 | 0.00 | 80 | 1022.7 |
| 20260503005526 | 50 | 355 | 1.7 | 3.5 | 0.00 | 0.00 | 0.00 | 81 | 1022.7 |
| 20260503005405 | 50 | 348 | 1.7 | 4.3 | 0.00 | 0.00 | 0.00 | 81 | 1022.6 |
| 20260503005305 | 51 | 343 | 1.7 | 4.3 | 0.00 | 0.00 | 0.00 | 81 | 1022.6 |
| 20260503005205 | 51 | 340 | 1.7 | 4.3 | 0.00 | 0.00 | 0.00 | 81 | 1022.6 |
| 20260503005105 | 51 | 337 | 1.7 | 4.3 | 0.00 | 0.00 | 0.00 | 81 | 1022.8 |
| 20260503005026 | 51 | 337 | 1.7 | 4.3 | 0.00 | 0.00 | 0.00 | 82 | 1022.8 |
| 20260503004905 | 51 | 335 | 1.7 | 4.3 | 0.00 | 0.00 | 0.00 | 82 | 1022.6 |
| 20260503004805 | 51 | 332 | 1.7 | 4.3 | 0.00 | 0.00 | 0.00 | 82 | 1022.8 |
| 20260503004705 | 51 | 329 | 1.7 | 5.2 | 0.00 | 0.00 | 0.00 | 82 | 1022.8 |
| 20260503004606 | 51 | 329 | 1.7 | 5.2 | 0.00 | 0.00 | 0.00 | 82 | 1022.5 |
| 20260503004505 | 51 | 328 | 1.7 | 5.2 | 0.00 | 0.00 | 0.00 | 82 | 1022.7 |
| 20260503004405 | 51 | 324 | 1.7 | 5.2 | 0.00 | 0.00 | 0.00 | 82 | 1022.9 |
| 20260503004305 | 51 | 326 | 1.7 | 5.2 | 0.00 | 0.00 | 0.00 | 82 | 1022.8 |
| 20260503004206 | 51 | 325 | 1.7 | 5.2 | 0.00 | 0.00 | 0.00 | 83 | 1022.8 |
| 20260503004127 | 51 | 325 | 1.7 | 5.2 | 0.00 | 0.00 | 0.00 | 83 | 1022.8 |
| 20260503004006 | 51 | 325 | 1.7 | 5.2 | 0.00 | 0.00 | 0.00 | 83 | 1022.9 |
| 20260503003905 | 50 | 326 | 1.7 | 5.2 | 0.00 | 0.00 | 0.00 | 83 | 1022.8 |
| 20260503003826 | 50 | 327 | 1.7 | 5.2 | 0.00 | 0.00 | 0.00 | 83 | 1022.8 |
| 20260503003705 | 50 | 332 | 1.7 | 4.3 | 0.00 | 0.00 | 0.00 | 83 | 1023.0 |
| 20260503003605 | 50 | 330 | 1.7 | 4.3 | 0.00 | 0.00 | 0.00 | 83 | 1022.9 |
| 20260503003505 | 50 | 332 | 1.7 | 4.3 | 0.00 | 0.00 | 0.00 | 83 | 1023.1 |
| 20260503003406 | 50 | 340 | 1.7 | 3.5 | 0.00 | 0.00 | 0.00 | 83 | 1023.0 |
| 20260503003326 | 50 | 342 | 1.7 | 3.5 | 0.00 | 0.00 | 0.00 | 83 | 1023.0 |
| 20260503003205 | 50 | 350 | 0.9 | 2.6 | 0.00 | 0.00 | 0.00 | 82 | 1023.0 |
| 20260503003126 | 50 | 352 | 0.9 | 2.6 | 0.00 | 0.00 | 0.00 | 82 | 1023.0 |
| 20260503003005 | 50 | 354 | 0.9 | 3.5 | 0.00 | 0.00 | 0.00 | 82 | 1022.9 |
| 20260503002905 | 50 | 357 | 0.9 | 3.5 | 0.00 | 0.00 | 0.00 | 82 | 1023.0 |
| 20260503002826 | 51 | 360 | 0.9 | 3.5 | 0.00 | 0.00 | 0.00 | 82 | 1023.0 |
| 20260503002726 | 51 | 355 | 1.7 | 3.5 | 0.00 | 0.00 | 0.00 | 82 | 1022.9 |